GEFSNE_prec_meanprecacc_054.txt.gz
Total_Precipitation_Accumulation
0.55 0.59 0.64 0.65 0.65 0.69 0.77 0.83 0.83 0.79 0.81 0.81 0.59 0.48 0.47 0.48 0.50 0.44 0.47 0.33 0.17 0.12 0.12 0.13 0.13 0.17 0.26 0.43 0.61 0.74 0.95 1.09 1.14 1.17 1.17 1.18 1.19 1.22
0.62 0.69 0.71 0.69 0.64 0.68 0.75 0.85 0.92 0.91 0.80 0.66 0.53 0.46 0.45 0.44 0.41 0.33 0.30 0.25 0.15 0.11 0.10 0.11 0.12 0.14 0.19 0.33 0.48 0.61 0.76 0.88 0.99 1.09 1.14 1.16 1.18 1.23
0.65 0.69 0.67 0.64 0.65 0.66 0.71 0.74 0.79 0.86 0.74 0.58 0.50 0.50 0.49 0.52 0.47 0.35 0.26 0.22 0.17 0.13 0.09 0.08 0.10 0.16 0.24 0.31 0.41 0.50 0.57 0.66 0.79 0.92 1.03 1.11 1.15 1.17
0.70 0.70 0.65 0.59 0.58 0.55 0.58 0.60 0.65 0.73 0.65 0.53 0.48 0.48 0.52 0.55 0.53 0.44 0.34 0.27 0.25 0.17 0.11 0.09 0.09 0.12 0.15 0.19 0.28 0.42 0.52 0.57 0.61 0.66 0.74 0.85 0.96 1.04
0.62 0.59 0.55 0.53 0.51 0.47 0.46 0.44 0.44 0.51 0.54 0.52 0.54 0.53 0.54 0.49 0.48 0.48 0.44 0.42 0.32 0.24 0.16 0.12 0.11 0.12 0.12 0.13 0.18 0.28 0.41 0.54 0.60 0.64 0.67 0.74 0.81 0.88
0.51 0.47 0.47 0.47 0.45 0.42 0.43 0.38 0.35 0.40 0.47 0.47 0.49 0.52 0.52 0.48 0.47 0.50 0.52 0.55 0.45 0.33 0.28 0.22 0.19 0.15 0.14 0.12 0.13 0.18 0.29 0.45 0.60 0.66 0.71 0.81 0.88 0.89
0.43 0.39 0.39 0.37 0.37 0.38 0.36 0.31 0.27 0.27 0.29 0.33 0.36 0.38 0.41 0.41 0.40 0.41 0.49 0.61 0.58 0.44 0.40 0.39 0.36 0.31 0.27 0.21 0.14 0.12 0.19 0.34 0.54 0.67 0.74 0.83 0.95 1.01
0.33 0.32 0.30 0.28 0.31 0.32 0.28 0.27 0.24 0.19 0.18 0.24 0.25 0.28 0.31 0.31 0.31 0.38 0.49 0.54 0.64 0.64 0.59 0.58 0.53 0.49 0.41 0.31 0.22 0.13 0.12 0.20 0.34 0.49 0.64 0.78 0.89 1.02
0.23 0.23 0.21 0.21 0.25 0.26 0.23 0.18 0.17 0.16 0.15 0.19 0.21 0.18 0.20 0.23 0.26 0.36 0.51 0.66 0.76 0.81 0.76 0.75 0.62 0.55 0.50 0.42 0.31 0.19 0.13 0.12 0.19 0.27 0.37 0.53 0.66 0.78
0.18 0.18 0.19 0.19 0.20 0.19 0.16 0.13 0.11 0.12 0.14 0.15 0.16 0.15 0.13 0.15 0.20 0.25 0.32 0.46 0.65 0.75 0.78 0.88 0.85 0.76 0.70 0.63 0.51 0.33 0.22 0.17 0.18 0.20 0.23 0.29 0.40 0.53
0.16 0.17 0.17 0.16 0.20 0.17 0.14 0.12 0.11 0.11 0.13 0.15 0.14 0.14 0.13 0.12 0.11 0.12 0.13 0.14 0.23 0.30 0.34 0.51 0.71 0.79 0.86 0.85 0.74 0.58 0.42 0.30 0.25 0.27 0.28 0.29 0.35 0.43
0.21 0.21 0.22 0.19 0.19 0.17 0.14 0.15 0.13 0.10 0.09 0.11 0.11 0.12 0.11 0.10 0.09 0.07 0.07 0.08 0.09 0.13 0.11 0.16 0.29 0.41 0.58 0.66 0.67 0.65 0.58 0.53 0.46 0.37 0.31 0.31 0.41 0.44
0.27 0.27 0.24 0.23 0.20 0.18 0.16 0.16 0.15 0.12 0.10 0.09 0.09 0.09 0.10 0.09 0.07 0.06 0.05 0.06 0.08 0.11 0.11 0.13 0.17 0.20 0.29 0.40 0.48 0.52 0.56 0.59 0.57 0.54 0.48 0.43 0.45 0.51
0.35 0.33 0.30 0.27 0.22 0.21 0.19 0.19 0.19 0.16 0.13 0.11 0.09 0.08 0.08 0.08 0.06 0.05 0.04 0.04 0.06 0.09 0.10 0.11 0.17 0.18 0.20 0.25 0.31 0.34 0.41 0.53 0.64 0.72 0.68 0.63 0.60 0.65
0.45 0.44 0.40 0.37 0.29 0.25 0.25 0.24 0.20 0.16 0.14 0.12 0.09 0.07 0.05 0.05 0.05 0.04 0.03 0.03 0.05 0.05 0.04 0.04 0.10 0.17 0.19 0.22 0.24 0.26 0.31 0.41 0.51 0.66 0.79 0.83 0.80 0.78
0.55 0.53 0.48 0.46 0.39 0.32 0.30 0.27 0.20 0.19 0.17 0.11 0.08 0.07 0.05 0.05 0.04 0.03 0.03 0.02 0.02 0.03 0.02 0.02 0.05 0.09 0.16 0.20 0.23 0.26 0.29 0.36 0.39 0.46 0.65 0.86 1.02 1.09
0.65 0.61 0.56 0.49 0.43 0.38 0.32 0.28 0.25 0.23 0.19 0.12 0.09 0.08 0.06 0.05 0.04 0.03 0.03 0.02 0.01 0.01 0.01 0.01 0.02 0.05 0.08 0.09 0.17 0.23 0.27 0.30 0.29 0.29 0.36 0.55 0.80 1.00
0.73 0.65 0.58 0.49 0.41 0.38 0.35 0.32 0.27 0.21 0.16 0.12 0.09 0.07 0.05 0.03 0.03 0.03 0.02 0.02 0.01 0.01 0.01 0.01 0.02 0.03 0.06 0.09 0.06 0.10 0.15 0.18 0.20 0.24 0.31 0.35 0.46 0.57
0.70 0.64 0.53 0.47 0.40 0.35 0.32 0.28 0.23 0.18 0.14 0.11 0.09 0.06 0.04 0.03 0.02 0.02 0.01 0.01 0.01 0.01 0.01 0.01 0.02 0.02 0.04 0.07 0.13 0.07 0.05 0.07 0.10 0.18 0.29 0.29 0.31 0.33
0.64 0.59 0.50 0.42 0.37 0.33 0.28 0.25 0.19 0.15 0.12 0.10 0.08 0.05 0.04 0.02 0.01 0.01 0.01 0.01 0.00 0.00 0.00 0.00 0.01 0.02 0.03 0.05 0.08 0.12 0.11 0.07 0.07 0.10 0.17 0.21 0.22 0.18
0.56 0.52 0.44 0.37 0.32 0.29 0.24 0.19 0.15 0.11 0.10 0.08 0.06 0.04 0.03 0.01 0.01 0.00 0.00 0.00 0.00 0.00 0.00 0.00 0.00 0.01 0.02 0.04 0.07 0.09 0.12 0.12 0.11 0.11 0.12 0.16 0.20 0.23
0.44 0.41 0.37 0.31 0.25 0.21 0.18 0.15 0.12 0.09 0.07 0.06 0.04 0.02 0.02 0.01 0.01 0.00 0.00 0.00 0.00 0.00 0.00 0.00 0.00 0.01 0.03 0.06 0.08 0.08 0.09 0.13 0.15 0.13 0.12 0.11 0.13 0.16
0.33 0.29 0.27 0.23 0.18 0.13 0.11 0.10 0.08 0.05 0.04 0.03 0.02 0.01 0.01 0.01 0.00 0.00 0.00 0.00 0.00 0.00 0.00 0.00 0.00 0.00 0.01 0.03 0.06 0.08 0.10 0.13 0.18 0.23 0.23 0.14 0.06 0.04

GEFSNE_prec_meanprecacc_060.txt.gz
Total_Precipitation_Accumulation
0.67 0.70 0.74 0.74 0.73 0.75 0.81 0.85 0.85 0.80 0.82 0.81 0.60 0.49 0.48 0.49 0.51 0.44 0.48 0.34 0.18 0.13 0.13 0.13 0.14 0.18 0.27 0.45 0.64 0.78 0.98 1.12 1.18 1.22 1.22 1.26 1.29 1.32
0.79 0.87 0.86 0.83 0.77 0.79 0.82 0.89 0.96 0.93 0.82 0.67 0.54 0.47 0.45 0.44 0.42 0.33 0.31 0.26 0.16 0.12 0.11 0.12 0.13 0.15 0.20 0.34 0.49 0.62 0.78 0.91 1.03 1.13 1.18 1.21 1.24 1.30
0.73 0.83 0.87 0.85 0.83 0.81 0.83 0.82 0.84 0.90 0.78 0.61 0.52 0.51 0.50 0.52 0.47 0.36 0.27 0.22 0.18 0.14 0.10 0.09 0.11 0.17 0.25 0.32 0.42 0.51 0.58 0.68 0.82 0.96 1.07 1.16 1.20 1.23
0.74 0.76 0.76 0.77 0.81 0.77 0.76 0.74 0.75 0.81 0.72 0.59 0.53 0.52 0.54 0.56 0.53 0.44 0.35 0.27 0.25 0.17 0.12 0.10 0.10 0.13 0.17 0.20 0.29 0.43 0.53 0.59 0.64 0.70 0.78 0.90 1.02 1.11
0.64 0.63 0.62 0.63 0.66 0.68 0.70 0.63 0.59 0.62 0.64 0.61 0.61 0.59 0.56 0.51 0.49 0.49 0.45 0.42 0.32 0.24 0.16 0.13 0.12 0.13 0.13 0.14 0.19 0.29 0.43 0.56 0.63 0.68 0.73 0.79 0.87 0.95
0.53 0.49 0.51 0.53 0.55 0.56 0.61 0.58 0.54 0.56 0.59 0.58 0.58 0.60 0.56 0.50 0.48 0.51 0.53 0.56 0.46 0.34 0.28 0.23 0.19 0.16 0.14 0.12 0.13 0.19 0.31 0.48 0.64 0.71 0.77 0.87 0.96 0.97
0.46 0.41 0.41 0.40 0.42 0.46 0.49 0.48 0.46 0.47 0.46 0.46 0.47 0.47 0.46 0.44 0.42 0.42 0.50 0.62 0.59 0.45 0.40 0.39 0.36 0.31 0.27 0.22 0.15 0.13 0.21 0.36 0.57 0.72 0.80 0.90 1.02 1.08
0.36 0.35 0.33 0.30 0.33 0.35 0.33 0.36 0.37 0.34 0.36 0.42 0.39 0.38 0.36 0.34 0.33 0.39 0.50 0.55 0.65 0.66 0.60 0.59 0.54 0.49 0.41 0.31 0.23 0.15 0.14 0.23 0.35 0.52 0.67 0.81 0.92 1.06
0.26 0.26 0.23 0.23 0.27 0.27 0.25 0.22 0.23 0.23 0.26 0.34 0.37 0.32 0.30 0.28 0.29 0.37 0.52 0.67 0.77 0.82 0.78 0.77 0.64 0.56 0.51 0.43 0.33 0.21 0.15 0.13 0.19 0.28 0.38 0.54 0.67 0.79
0.21 0.22 0.22 0.21 0.22 0.22 0.19 0.15 0.14 0.15 0.17 0.21 0.26 0.30 0.30 0.29 0.27 0.28 0.34 0.49 0.67 0.76 0.79 0.89 0.87 0.77 0.72 0.64 0.52 0.35 0.24 0.18 0.18 0.20 0.23 0.29 0.41 0.53
0.19 0.20 0.20 0.19 0.22 0.19 0.16 0.16 0.15 0.15 0.16 0.19 0.20 0.24 0.27 0.26 0.24 0.18 0.17 0.18 0.25 0.32 0.35 0.53 0.72 0.80 0.87 0.86 0.74 0.59 0.43 0.31 0.25 0.27 0.28 0.29 0.35 0.44
0.25 0.24 0.23 0.21 0.20 0.17 0.16 0.18 0.17 0.15 0.14 0.15 0.16 0.18 0.18 0.20 0.19 0.15 0.11 0.11 0.11 0.14 0.12 0.17 0.30 0.42 0.59 0.68 0.68 0.65 0.59 0.53 0.46 0.37 0.31 0.31 0.41 0.44
0.31 0.31 0.26 0.23 0.20 0.18 0.18 0.20 0.20 0.18 0.18 0.17 0.16 0.16 0.16 0.17 0.15 0.13 0.12 0.10 0.10 0.12 0.11 0.13 0.17 0.21 0.29 0.40 0.49 0.53 0.57 0.59 0.57 0.54 0.48 0.43 0.45 0.51
0.39 0.36 0.34 0.27 0.23 0.22 0.22 0.23 0.24 0.23 0.23 0.22 0.19 0.17 0.15 0.14 0.13 0.11 0.11 0.10 0.10 0.11 0.11 0.11 0.17 0.19 0.20 0.25 0.32 0.35 0.41 0.53 0.64 0.72 0.68 0.63 0.60 0.65
0.48 0.46 0.43 0.37 0.29 0.26 0.28 0.28 0.25 0.24 0.26 0.25 0.21 0.15 0.11 0.10 0.11 0.12 0.11 0.10 0.09 0.08 0.06 0.05 0.11 0.17 0.19 0.22 0.24 0.26 0.31 0.41 0.51 0.66 0.79 0.83 0.80 0.78
0.56 0.54 0.49 0.47 0.40 0.34 0.34 0.31 0.27 0.30 0.31 0.27 0.22 0.18 0.14 0.12 0.12 0.11 0.09 0.07 0.06 0.06 0.04 0.04 0.06 0.10 0.17 0.20 0.24 0.26 0.29 0.36 0.39 0.46 0.65 0.86 1.02 1.09
0.71 0.69 0.62 0.53 0.47 0.42 0.38 0.35 0.34 0.39 0.38 0.34 0.28 0.23 0.19 0.15 0.13 0.11 0.08 0.06 0.04 0.03 0.03 0.03 0.04 0.07 0.09 0.10 0.17 0.23 0.27 0.30 0.29 0.29 0.36 0.55 0.80 1.00
0.80 0.74 0.66 0.56 0.47 0.44 0.44 0.42 0.40 0.39 0.36 0.34 0.31 0.26 0.21 0.16 0.13 0.11 0.09 0.07 0.05 0.03 0.02 0.02 0.03 0.04 0.08 0.10 0.06 0.10 0.16 0.18 0.20 0.25 0.31 0.35 0.47 0.57
0.77 0.72 0.62 0.55 0.48 0.44 0.43 0.41 0.39 0.37 0.34 0.32 0.30 0.27 0.23 0.16 0.13 0.11 0.08 0.07 0.06 0.03 0.02 0.02 0.02 0.03 0.04 0.08 0.13 0.07 0.05 0.07 0.10 0.18 0.29 0.29 0.31 0.33
0.72 0.70 0.61 0.52 0.47 0.45 0.42 0.42 0.39 0.37 0.33 0.30 0.29 0.26 0.23 0.17 0.12 0.10 0.07 0.05 0.04 0.03 0.02 0.01 0.02 0.02 0.04 0.05 0.08 0.12 0.11 0.07 0.07 0.10 0.17 0.21 0.22 0.18
0.69 0.65 0.57 0.49 0.45 0.44 0.41 0.39 0.37 0.34 0.30 0.28 0.28 0.26 0.22 0.16 0.11 0.08 0.06 0.04 0.03 0.02 0.02 0.01 0.01 0.01 0.02 0.04 0.07 0.09 0.12 0.12 0.11 0.11 0.12 0.16 0.20 0.23
0.60 0.57 0.54 0.47 0.42 0.40 0.37 0.34 0.33 0.29 0.26 0.25 0.25 0.24 0.21 0.15 0.09 0.06 0.04 0.03 0.03 0.02 0.02 0.01 0.01 0.01 0.03 0.06 0.08 0.08 0.09 0.13 0.15 0.13 0.12 0.11 0.13 0.16
0.49 0.47 0.46 0.41 0.36 0.32 0.29 0.26 0.25 0.24 0.22 0.21 0.20 0.19 0.18 0.14 0.09 0.05 0.03 0.03 0.03 0.02 0.02 0.01 0.00 0.00 0.01 0.03 0.06 0.08 0.10 0.13 0.18 0.23 0.23 0.14 0.06 0.04

GEFSNE_prec_meanprecacc_066.txt.gz
Total_Precipitation_Accumulation
0.74 0.81 0.87 0.88 0.90 0.93 0.98 1.01 1.02 0.97 0.97 0.91 0.65 0.52 0.50 0.50 0.51 0.44 0.48 0.34 0.18 0.13 0.13 0.13 0.14 0.18 0.28 0.46 0.65 0.79 1.01 1.15 1.22 1.26 1.26 1.31 1.34 1.39
0.84 0.94 0.95 0.94 0.91 0.95 1.01 1.11 1.18 1.12 0.99 0.81 0.66 0.58 0.53 0.46 0.42 0.34 0.31 0.26 0.16 0.12 0.11 0.12 0.13 0.15 0.20 0.34 0.49 0.63 0.80 0.94 1.06 1.17 1.22 1.25 1.28 1.36
0.76 0.87 0.94 0.95 0.95 0.95 1.00 1.03 1.09 1.16 1.02 0.82 0.75 0.74 0.70 0.61 0.49 0.37 0.27 0.23 0.18 0.14 0.10 0.09 0.11 0.17 0.25 0.32 0.42 0.52 0.59 0.69 0.83 0.98 1.10 1.20 1.24 1.28
0.78 0.80 0.79 0.84 0.92 0.91 0.92 0.92 0.96 1.07 0.97 0.84 0.84 0.82 0.79 0.72 0.62 0.49 0.36 0.28 0.25 0.17 0.12 0.10 0.10 0.13 0.17 0.21 0.30 0.44 0.54 0.60 0.65 0.71 0.79 0.92 1.05 1.15
0.68 0.68 0.66 0.67 0.72 0.79 0.85 0.81 0.78 0.85 0.90 0.90 0.91 0.92 0.86 0.72 0.63 0.56 0.47 0.43 0.32 0.24 0.16 0.13 0.12 0.13 0.13 0.14 0.20 0.29 0.43 0.57 0.64 0.69 0.74 0.81 0.88 0.98
0.56 0.53 0.55 0.58 0.59 0.62 0.70 0.72 0.72 0.76 0.82 0.84 0.89 0.94 0.86 0.75 0.67 0.61 0.57 0.58 0.46 0.34 0.28 0.23 0.19 0.16 0.15 0.13 0.13 0.20 0.31 0.48 0.64 0.71 0.78 0.88 0.97 1.00
0.50 0.45 0.44 0.44 0.46 0.51 0.55 0.57 0.60 0.65 0.68 0.71 0.75 0.80 0.76 0.70 0.62 0.55 0.56 0.65 0.61 0.45 0.40 0.39 0.36 0.31 0.28 0.22 0.15 0.14 0.21 0.36 0.57 0.73 0.82 0.92 1.05 1.14
0.42 0.41 0.37 0.33 0.36 0.38 0.37 0.42 0.47 0.47 0.53 0.64 0.66 0.70 0.68 0.60 0.55 0.56 0.58 0.59 0.67 0.67 0.60 0.59 0.54 0.50 0.41 0.31 0.23 0.15 0.15 0.24 0.36 0.53 0.68 0.83 0.95 1.10
0.35 0.36 0.28 0.25 0.30 0.31 0.28 0.26 0.29 0.32 0.36 0.49 0.59 0.60 0.61 0.58 0.54 0.56 0.62 0.74 0.82 0.84 0.79 0.77 0.64 0.56 0.51 0.43 0.33 0.21 0.16 0.15 0.21 0.29 0.40 0.55 0.69 0.81
0.28 0.32 0.30 0.27 0.27 0.27 0.25 0.20 0.18 0.21 0.24 0.29 0.37 0.48 0.61 0.67 0.60 0.53 0.53 0.59 0.74 0.81 0.82 0.91 0.88 0.78 0.72 0.64 0.53 0.35 0.25 0.19 0.18 0.20 0.24 0.31 0.43 0.55
0.25 0.27 0.28 0.27 0.28 0.22 0.21 0.22 0.21 0.20 0.20 0.24 0.28 0.37 0.48 0.59 0.66 0.50 0.36 0.30 0.33 0.36 0.37 0.54 0.73 0.81 0.87 0.86 0.74 0.59 0.44 0.32 0.26 0.28 0.29 0.30 0.35 0.44
0.35 0.32 0.29 0.28 0.26 0.20 0.20 0.23 0.22 0.20 0.19 0.20 0.21 0.26 0.30 0.37 0.46 0.44 0.32 0.23 0.18 0.18 0.14 0.19 0.31 0.42 0.59 0.68 0.68 0.65 0.59 0.54 0.46 0.37 0.32 0.32 0.41 0.44
0.42 0.40 0.33 0.27 0.21 0.19 0.20 0.23 0.24 0.22 0.24 0.25 0.24 0.23 0.27 0.30 0.30 0.31 0.29 0.23 0.20 0.17 0.13 0.14 0.18 0.21 0.29 0.40 0.49 0.53 0.57 0.60 0.57 0.54 0.48 0.43 0.45 0.52
0.51 0.48 0.43 0.33 0.25 0.23 0.22 0.23 0.24 0.24 0.26 0.29 0.28 0.27 0.26 0.25 0.25 0.25 0.25 0.23 0.21 0.20 0.15 0.13 0.18 0.19 0.20 0.25 0.32 0.35 0.41 0.54 0.65 0.72 0.68 0.63 0.60 0.65
0.58 0.56 0.51 0.41 0.31 0.27 0.29 0.28 0.25 0.24 0.27 0.29 0.28 0.26 0.23 0.21 0.22 0.24 0.24 0.22 0.21 0.18 0.13 0.09 0.12 0.18 0.19 0.22 0.24 0.26 0.31 0.42 0.52 0.66 0.79 0.83 0.80 0.78
0.59 0.57 0.51 0.48 0.41 0.35 0.35 0.32 0.27 0.30 0.33 0.31 0.30 0.30 0.29 0.27 0.25 0.22 0.20 0.18 0.17 0.14 0.11 0.08 0.08 0.11 0.17 0.21 0.24 0.26 0.30 0.36 0.39 0.46 0.65 0.86 1.02 1.09
0.75 0.76 0.68 0.58 0.49 0.44 0.41 0.38 0.37 0.41 0.40 0.39 0.38 0.38 0.35 0.29 0.26 0.23 0.20 0.16 0.12 0.09 0.07 0.07 0.07 0.09 0.11 0.10 0.18 0.23 0.27 0.30 0.29 0.29 0.37 0.55 0.80 1.00
0.83 0.83 0.77 0.66 0.55 0.51 0.49 0.47 0.44 0.43 0.40 0.41 0.41 0.41 0.39 0.32 0.27 0.23 0.21 0.17 0.13 0.09 0.06 0.05 0.05 0.06 0.09 0.11 0.07 0.11 0.16 0.18 0.20 0.25 0.31 0.35 0.47 0.57
0.80 0.79 0.72 0.66 0.58 0.55 0.54 0.51 0.46 0.44 0.43 0.43 0.43 0.43 0.42 0.34 0.28 0.24 0.19 0.18 0.16 0.11 0.07 0.05 0.04 0.04 0.06 0.09 0.13 0.07 0.06 0.07 0.10 0.18 0.29 0.29 0.31 0.33
0.75 0.74 0.69 0.63 0.58 0.56 0.54 0.52 0.49 0.47 0.44 0.43 0.44 0.44 0.43 0.34 0.28 0.24 0.17 0.14 0.14 0.12 0.08 0.05 0.04 0.03 0.04 0.05 0.08 0.13 0.11 0.08 0.07 0.10 0.17 0.22 0.23 0.18
0.75 0.72 0.65 0.58 0.54 0.55 0.53 0.50 0.47 0.44 0.43 0.44 0.45 0.43 0.42 0.34 0.26 0.22 0.18 0.15 0.12 0.11 0.09 0.06 0.03 0.02 0.03 0.05 0.07 0.09 0.12 0.12 0.11 0.11 0.12 0.16 0.20 0.23
0.71 0.66 0.63 0.55 0.51 0.51 0.49 0.46 0.44 0.41 0.40 0.42 0.43 0.43 0.41 0.33 0.24 0.20 0.18 0.15 0.11 0.09 0.08 0.06 0.04 0.03 0.05 0.07 0.08 0.08 0.09 0.13 0.15 0.13 0.12 0.11 0.13 0.16
0.61 0.57 0.56 0.50 0.46 0.42 0.40 0.37 0.37 0.36 0.36 0.37 0.38 0.40 0.40 0.33 0.25 0.20 0.18 0.14 0.11 0.09 0.08 0.07 0.05 0.03 0.02 0.04 0.07 0.09 0.10 0.13 0.19 0.23 0.23 0.14 0.06 0.04

GEFSNE_prec_meanprecacc_072.txt.gz
Total_Precipitation_Accumulation
0.76 0.85 0.93 0.97 1.00 1.06 1.13 1.17 1.19 1.15 1.14 1.06 0.78 0.65 0.60 0.57 0.56 0.47 0.49 0.34 0.18 0.13 0.13 0.13 0.14 0.18 0.28 0.46 0.65 0.80 1.01 1.16 1.23 1.27 1.27 1.32 1.38 1.45
0.85 0.96 0.99 0.99 0.99 1.05 1.13 1.27 1.35 1.31 1.17 0.97 0.83 0.78 0.73 0.61 0.52 0.38 0.33 0.27 0.16 0.12 0.11 0.12 0.13 0.15 0.21 0.34 0.49 0.63 0.80 0.94 1.07 1.18 1.23 1.26 1.30 1.37
0.76 0.88 0.96 0.98 1.01 1.04 1.10 1.14 1.25 1.35 1.22 1.02 0.97 0.99 0.98 0.89 0.70 0.48 0.31 0.23 0.18 0.14 0.10 0.09 0.11 0.18 0.26 0.33 0.42 0.52 0.59 0.69 0.84 0.98 1.11 1.20 1.25 1.30
0.78 0.80 0.80 0.85 0.94 0.96 1.00 1.00 1.07 1.22 1.17 1.07 1.08 1.09 1.07 1.00 0.86 0.65 0.44 0.30 0.25 0.17 0.12 0.10 0.11 0.13 0.17 0.21 0.30 0.44 0.54 0.60 0.65 0.71 0.80 0.92 1.06 1.16
0.70 0.69 0.67 0.68 0.73 0.81 0.89 0.87 0.85 0.94 1.03 1.09 1.15 1.19 1.21 1.06 0.88 0.73 0.59 0.49 0.34 0.24 0.17 0.13 0.12 0.14 0.14 0.14 0.20 0.30 0.44 0.57 0.64 0.69 0.74 0.81 0.89 0.98
0.58 0.55 0.57 0.60 0.61 0.64 0.73 0.77 0.78 0.83 0.91 0.98 1.09 1.21 1.19 1.17 1.01 0.84 0.75 0.68 0.50 0.34 0.29 0.23 0.20 0.16 0.15 0.13 0.14 0.20 0.31 0.49 0.65 0.72 0.78 0.89 0.98 1.00
0.53 0.48 0.46 0.46 0.48 0.53 0.57 0.60 0.65 0.71 0.74 0.81 0.91 1.01 1.07 1.08 0.99 0.83 0.74 0.77 0.67 0.47 0.40 0.39 0.36 0.31 0.28 0.22 0.16 0.14 0.22 0.37 0.58 0.74 0.82 0.93 1.06 1.14
0.45 0.44 0.40 0.36 0.39 0.41 0.40 0.45 0.50 0.52 0.59 0.70 0.76 0.85 0.90 0.91 0.93 0.93 0.85 0.74 0.75 0.70 0.61 0.59 0.54 0.50 0.41 0.31 0.23 0.16 0.16 0.25 0.37 0.53 0.69 0.83 0.95 1.10
0.39 0.40 0.32 0.28 0.33 0.33 0.31 0.28 0.32 0.35 0.41 0.54 0.64 0.69 0.77 0.81 0.85 0.94 0.93 0.92 0.91 0.88 0.81 0.78 0.65 0.56 0.51 0.43 0.34 0.22 0.16 0.15 0.21 0.29 0.40 0.56 0.69 0.81
0.33 0.37 0.36 0.32 0.31 0.30 0.28 0.23 0.21 0.23 0.27 0.33 0.41 0.53 0.69 0.85 0.87 0.85 0.86 0.86 0.92 0.91 0.87 0.94 0.89 0.78 0.72 0.64 0.53 0.35 0.25 0.19 0.19 0.20 0.24 0.31 0.43 0.56
0.30 0.32 0.35 0.32 0.32 0.26 0.25 0.26 0.25 0.23 0.23 0.28 0.32 0.42 0.54 0.70 0.87 0.82 0.70 0.58 0.53 0.47 0.43 0.58 0.75 0.82 0.88 0.86 0.75 0.60 0.45 0.32 0.26 0.28 0.29 0.30 0.36 0.44
0.40 0.38 0.36 0.34 0.31 0.24 0.24 0.27 0.25 0.24 0.23 0.23 0.25 0.30 0.35 0.44 0.60 0.67 0.58 0.45 0.35 0.29 0.20 0.22 0.32 0.43 0.59 0.68 0.68 0.65 0.59 0.54 0.47 0.38 0.32 0.32 0.42 0.44
0.46 0.46 0.39 0.33 0.26 0.23 0.24 0.26 0.26 0.26 0.30 0.30 0.28 0.27 0.31 0.35 0.39 0.46 0.50 0.43 0.34 0.25 0.18 0.17 0.19 0.22 0.30 0.41 0.49 0.53 0.57 0.60 0.57 0.54 0.49 0.43 0.46 0.52
0.55 0.53 0.49 0.39 0.29 0.26 0.25 0.26 0.27 0.27 0.31 0.36 0.34 0.31 0.30 0.29 0.31 0.37 0.39 0.39 0.35 0.30 0.23 0.18 0.20 0.20 0.20 0.25 0.32 0.35 0.41 0.54 0.65 0.72 0.68 0.63 0.60 0.66
0.61 0.60 0.56 0.47 0.36 0.31 0.32 0.31 0.27 0.27 0.30 0.35 0.35 0.30 0.27 0.26 0.30 0.37 0.39 0.36 0.35 0.31 0.23 0.16 0.16 0.19 0.20 0.22 0.24 0.26 0.31 0.42 0.52 0.66 0.79 0.83 0.80 0.78
0.62 0.60 0.55 0.53 0.46 0.39 0.38 0.34 0.29 0.32 0.34 0.33 0.35 0.35 0.34 0.33 0.34 0.34 0.35 0.33 0.30 0.28 0.23 0.16 0.13 0.13 0.18 0.21 0.24 0.26 0.30 0.36 0.39 0.46 0.65 0.86 1.02 1.09
0.78 0.78 0.71 0.61 0.52 0.46 0.43 0.40 0.38 0.41 0.40 0.40 0.40 0.42 0.41 0.36 0.35 0.34 0.34 0.31 0.25 0.20 0.19 0.15 0.12 0.12 0.13 0.11 0.18 0.23 0.27 0.30 0.29 0.29 0.37 0.55 0.80 1.00
0.85 0.86 0.79 0.68 0.57 0.53 0.52 0.49 0.45 0.44 0.41 0.41 0.42 0.44 0.43 0.38 0.35 0.34 0.35 0.33 0.26 0.20 0.16 0.13 0.12 0.13 0.14 0.13 0.07 0.11 0.16 0.18 0.20 0.25 0.31 0.35 0.47 0.57
0.80 0.81 0.74 0.68 0.60 0.57 0.56 0.52 0.47 0.45 0.44 0.44 0.43 0.44 0.45 0.40 0.36 0.34 0.32 0.33 0.30 0.24 0.18 0.14 0.11 0.10 0.11 0.12 0.14 0.08 0.06 0.07 0.10 0.18 0.29 0.29 0.31 0.33
0.76 0.75 0.70 0.64 0.60 0.58 0.55 0.53 0.51 0.49 0.46 0.45 0.45 0.45 0.46 0.40 0.36 0.34 0.29 0.27 0.28 0.26 0.22 0.16 0.10 0.07 0.07 0.08 0.10 0.13 0.11 0.08 0.07 0.10 0.17 0.22 0.23 0.18
0.76 0.73 0.66 0.59 0.56 0.56 0.54 0.52 0.49 0.47 0.45 0.46 0.46 0.45 0.46 0.39 0.33 0.31 0.30 0.29 0.26 0.24 0.21 0.16 0.11 0.08 0.07 0.08 0.10 0.11 0.13 0.12 0.11 0.11 0.12 0.16 0.20 0.23
0.73 0.68 0.64 0.56 0.52 0.52 0.50 0.48 0.47 0.45 0.44 0.45 0.46 0.46 0.46 0.40 0.32 0.30 0.30 0.28 0.23 0.21 0.20 0.18 0.14 0.10 0.10 0.11 0.11 0.09 0.10 0.14 0.15 0.13 0.12 0.12 0.13 0.16
0.64 0.60 0.57 0.52 0.47 0.44 0.41 0.39 0.39 0.40 0.39 0.40 0.41 0.44 0.46 0.41 0.33 0.30 0.29 0.28 0.24 0.22 0.22 0.21 0.17 0.12 0.09 0.09 0.10 0.10 0.11 0.15 0.20 0.24 0.23 0.14 0.06 0.04

GEFSNE_prec_meanprecacc_078.txt.gz
Total_Precipitation_Accumulation
0.77 0.86 0.94 0.99 1.06 1.15 1.23 1.27 1.29 1.24 1.21 1.11 0.85 0.74 0.67 0.64 0.64 0.55 0.56 0.40 0.23 0.17 0.16 0.16 0.16 0.19 0.29 0.47 0.66 0.81 1.02 1.17 1.24 1.28 1.30 1.35 1.41 1.49
0.85 0.96 0.99 1.00 1.01 1.10 1.22 1.37 1.46 1.42 1.28 1.05 0.91 0.89 0.82 0.69 0.60 0.46 0.41 0.34 0.22 0.16 0.15 0.14 0.14 0.16 0.22 0.35 0.50 0.64 0.80 0.94 1.07 1.18 1.23 1.27 1.31 1.39
0.76 0.88 0.96 0.98 1.01 1.06 1.15 1.23 1.36 1.47 1.33 1.13 1.08 1.11 1.10 0.99 0.79 0.58 0.40 0.31 0.23 0.17 0.13 0.11 0.12 0.19 0.27 0.34 0.44 0.52 0.60 0.69 0.84 0.99 1.11 1.20 1.26 1.30
0.78 0.80 0.80 0.85 0.95 0.97 1.03 1.07 1.17 1.34 1.28 1.19 1.21 1.24 1.23 1.14 0.97 0.75 0.53 0.37 0.30 0.20 0.14 0.11 0.11 0.14 0.18 0.22 0.31 0.45 0.55 0.61 0.66 0.72 0.80 0.93 1.07 1.17
0.70 0.69 0.67 0.68 0.73 0.82 0.91 0.91 0.93 1.05 1.15 1.21 1.29 1.34 1.40 1.26 1.04 0.85 0.68 0.55 0.38 0.26 0.18 0.14 0.13 0.14 0.14 0.15 0.20 0.30 0.44 0.58 0.65 0.69 0.74 0.82 0.89 0.98
0.58 0.55 0.57 0.60 0.61 0.64 0.74 0.78 0.81 0.90 1.01 1.10 1.26 1.40 1.39 1.39 1.24 1.02 0.87 0.76 0.55 0.37 0.30 0.24 0.21 0.17 0.15 0.13 0.14 0.20 0.32 0.49 0.65 0.72 0.78 0.89 0.98 1.00
0.53 0.48 0.47 0.46 0.48 0.54 0.57 0.61 0.66 0.75 0.81 0.89 1.04 1.23 1.30 1.33 1.24 1.06 0.92 0.89 0.75 0.50 0.42 0.40 0.37 0.31 0.28 0.23 0.16 0.15 0.22 0.37 0.58 0.74 0.83 0.93 1.06 1.15
0.45 0.44 0.40 0.37 0.40 0.42 0.40 0.46 0.51 0.55 0.64 0.76 0.84 1.00 1.13 1.16 1.20 1.23 1.09 0.91 0.85 0.74 0.62 0.60 0.55 0.50 0.41 0.32 0.24 0.16 0.16 0.25 0.37 0.54 0.69 0.84 0.96 1.11
0.39 0.40 0.33 0.29 0.34 0.35 0.32 0.30 0.33 0.37 0.44 0.58 0.69 0.78 0.94 1.05 1.12 1.25 1.24 1.16 1.04 0.95 0.85 0.80 0.65 0.57 0.51 0.44 0.35 0.22 0.17 0.16 0.21 0.30 0.41 0.56 0.69 0.82
0.34 0.37 0.36 0.32 0.32 0.33 0.31 0.26 0.22 0.25 0.29 0.36 0.45 0.59 0.80 1.05 1.13 1.13 1.21 1.25 1.20 1.07 0.95 0.97 0.90 0.79 0.73 0.64 0.54 0.36 0.25 0.20 0.19 0.21 0.25 0.31 0.44 0.56
0.30 0.33 0.35 0.33 0.34 0.28 0.28 0.28 0.27 0.25 0.25 0.31 0.36 0.47 0.63 0.85 1.12 1.12 1.03 0.97 0.93 0.74 0.57 0.62 0.77 0.83 0.89 0.87 0.75 0.61 0.45 0.33 0.27 0.28 0.30 0.30 0.36 0.45
0.41 0.40 0.37 0.36 0.34 0.28 0.28 0.31 0.28 0.26 0.25 0.25 0.28 0.35 0.42 0.55 0.79 0.92 0.83 0.69 0.61 0.56 0.39 0.31 0.37 0.45 0.61 0.69 0.69 0.66 0.59 0.55 0.47 0.38 0.33 0.32 0.42 0.44
0.47 0.48 0.42 0.37 0.31 0.28 0.29 0.32 0.31 0.29 0.33 0.32 0.30 0.31 0.37 0.44 0.53 0.65 0.72 0.64 0.52 0.41 0.34 0.30 0.28 0.27 0.32 0.42 0.50 0.53 0.57 0.60 0.57 0.54 0.49 0.44 0.46 0.52
0.56 0.54 0.52 0.44 0.35 0.33 0.33 0.33 0.34 0.33 0.36 0.40 0.37 0.34 0.33 0.35 0.41 0.51 0.57 0.59 0.55 0.46 0.36 0.30 0.30 0.27 0.25 0.28 0.34 0.36 0.42 0.54 0.65 0.72 0.68 0.63 0.60 0.66
0.63 0.61 0.58 0.50 0.41 0.36 0.39 0.39 0.35 0.33 0.36 0.40 0.39 0.33 0.29 0.30 0.37 0.48 0.54 0.52 0.52 0.49 0.39 0.27 0.24 0.26 0.25 0.26 0.27 0.28 0.32 0.42 0.52 0.66 0.79 0.83 0.80 0.78
0.64 0.62 0.58 0.56 0.49 0.44 0.45 0.42 0.37 0.38 0.40 0.38 0.39 0.39 0.37 0.37 0.39 0.43 0.47 0.47 0.44 0.45 0.38 0.29 0.23 0.20 0.23 0.25 0.27 0.29 0.31 0.36 0.39 0.46 0.65 0.86 1.02 1.09
0.80 0.81 0.73 0.63 0.55 0.50 0.48 0.48 0.46 0.48 0.46 0.45 0.45 0.48 0.46 0.40 0.38 0.40 0.45 0.44 0.37 0.34 0.34 0.31 0.25 0.22 0.20 0.16 0.21 0.26 0.29 0.31 0.30 0.29 0.37 0.55 0.80 1.00
0.88 0.88 0.81 0.71 0.60 0.56 0.56 0.55 0.51 0.49 0.46 0.46 0.46 0.48 0.50 0.45 0.39 0.39 0.42 0.44 0.39 0.33 0.30 0.30 0.28 0.26 0.24 0.20 0.12 0.13 0.17 0.19 0.21 0.25 0.31 0.35 0.47 0.57
0.84 0.84 0.77 0.71 0.63 0.59 0.59 0.57 0.52 0.49 0.48 0.48 0.46 0.47 0.50 0.49 0.43 0.40 0.38 0.40 0.41 0.38 0.32 0.29 0.26 0.22 0.20 0.18 0.18 0.10 0.07 0.08 0.11 0.19 0.29 0.30 0.31 0.33
0.79 0.79 0.73 0.67 0.63 0.61 0.58 0.57 0.55 0.52 0.50 0.48 0.48 0.47 0.48 0.46 0.46 0.41 0.36 0.34 0.37 0.38 0.35 0.30 0.23 0.17 0.14 0.14 0.13 0.16 0.13 0.09 0.08 0.11 0.17 0.22 0.23 0.18
0.78 0.74 0.68 0.62 0.59 0.59 0.56 0.54 0.52 0.49 0.48 0.49 0.48 0.46 0.47 0.42 0.40 0.41 0.38 0.37 0.35 0.35 0.33 0.26 0.22 0.19 0.17 0.19 0.19 0.17 0.16 0.14 0.12 0.12 0.13 0.16 0.20 0.23
0.75 0.69 0.65 0.58 0.55 0.54 0.52 0.49 0.49 0.47 0.46 0.47 0.48 0.47 0.47 0.41 0.35 0.36 0.39 0.38 0.32 0.29 0.30 0.28 0.28 0.26 0.23 0.22 0.21 0.17 0.17 0.18 0.17 0.14 0.14 0.13 0.13 0.17
0.65 0.61 0.59 0.54 0.49 0.45 0.43 0.41 0.41 0.42 0.41 0.42 0.42 0.45 0.47 0.41 0.34 0.33 0.35 0.37 0.35 0.32 0.34 0.36 0.33 0.28 0.23 0.20 0.20 0.20 0.20 0.22 0.24 0.26 0.25 0.15 0.07 0.04

GEFSNE_prec_meanprecacc_084.txt.gz
Total_Precipitation_Accumulation
0.78 0.87 0.96 1.01 1.08 1.17 1.26 1.30 1.34 1.30 1.28 1.21 0.97 0.88 0.83 0.79 0.80 0.71 0.74 0.55 0.34 0.27 0.26 0.26 0.25 0.25 0.33 0.50 0.69 0.84 1.05 1.19 1.26 1.31 1.32 1.38 1.44 1.52
0.86 0.97 1.00 1.01 1.03 1.12 1.25 1.41 1.50 1.47 1.35 1.13 0.99 0.99 0.95 0.84 0.77 0.63 0.56 0.51 0.36 0.26 0.24 0.25 0.24 0.24 0.26 0.38 0.52 0.66 0.82 0.96 1.09 1.19 1.25 1.28 1.32 1.40
0.77 0.89 0.97 0.99 1.03 1.08 1.17 1.26 1.40 1.52 1.39 1.20 1.15 1.19 1.20 1.12 0.93 0.73 0.55 0.46 0.38 0.30 0.23 0.21 0.21 0.26 0.32 0.37 0.46 0.55 0.62 0.72 0.86 1.00 1.12 1.21 1.27 1.31
0.79 0.81 0.81 0.86 0.96 0.98 1.05 1.09 1.19 1.39 1.35 1.27 1.31 1.34 1.35 1.26 1.11 0.92 0.70 0.55 0.46 0.35 0.25 0.21 0.20 0.21 0.24 0.26 0.34 0.47 0.57 0.63 0.68 0.74 0.82 0.94 1.07 1.17
0.71 0.70 0.68 0.70 0.75 0.83 0.93 0.92 0.94 1.07 1.21 1.29 1.41 1.47 1.54 1.41 1.19 1.01 0.86 0.74 0.54 0.40 0.31 0.24 0.22 0.21 0.20 0.20 0.24 0.32 0.46 0.59 0.66 0.71 0.75 0.82 0.90 0.99
0.59 0.56 0.58 0.61 0.63 0.67 0.76 0.81 0.84 0.92 1.05 1.16 1.35 1.55 1.56 1.59 1.43 1.19 1.06 0.96 0.73 0.50 0.41 0.33 0.28 0.24 0.21 0.18 0.18 0.22 0.33 0.50 0.66 0.73 0.79 0.90 0.98 1.01
0.54 0.49 0.48 0.47 0.49 0.55 0.58 0.63 0.70 0.79 0.84 0.94 1.11 1.35 1.48 1.56 1.49 1.28 1.12 1.10 0.96 0.67 0.53 0.47 0.43 0.36 0.32 0.26 0.19 0.16 0.24 0.38 0.59 0.75 0.83 0.94 1.07 1.15
0.47 0.46 0.41 0.38 0.41 0.42 0.40 0.46 0.53 0.58 0.67 0.80 0.89 1.09 1.27 1.36 1.44 1.49 1.33 1.14 1.08 0.93 0.77 0.71 0.62 0.55 0.44 0.33 0.25 0.18 0.17 0.26 0.38 0.54 0.70 0.84 0.96 1.11
0.41 0.42 0.34 0.29 0.35 0.37 0.34 0.31 0.34 0.38 0.46 0.62 0.74 0.84 1.04 1.22 1.36 1.51 1.47 1.36 1.25 1.15 1.02 0.97 0.76 0.62 0.54 0.45 0.36 0.23 0.18 0.17 0.23 0.31 0.41 0.57 0.70 0.82
0.35 0.39 0.38 0.34 0.34 0.35 0.34 0.29 0.26 0.27 0.31 0.38 0.49 0.65 0.89 1.20 1.35 1.42 1.49 1.52 1.48 1.35 1.19 1.18 1.06 0.87 0.76 0.66 0.55 0.37 0.26 0.20 0.20 0.22 0.25 0.32 0.44 0.56
0.32 0.35 0.38 0.36 0.36 0.29 0.31 0.32 0.32 0.31 0.28 0.33 0.40 0.51 0.70 0.96 1.31 1.40 1.38 1.28 1.27 1.08 0.84 0.84 0.93 0.95 0.97 0.90 0.77 0.62 0.46 0.33 0.28 0.29 0.30 0.31 0.36 0.45
0.44 0.42 0.39 0.37 0.35 0.29 0.31 0.35 0.33 0.31 0.31 0.31 0.33 0.38 0.46 0.63 0.92 1.13 1.12 0.99 0.88 0.87 0.64 0.52 0.55 0.59 0.72 0.76 0.71 0.67 0.60 0.56 0.48 0.39 0.33 0.33 0.42 0.45
0.49 0.50 0.45 0.38 0.31 0.29 0.31 0.36 0.35 0.36 0.42 0.43 0.41 0.40 0.44 0.51 0.62 0.81 0.96 0.94 0.80 0.65 0.56 0.48 0.46 0.43 0.44 0.50 0.55 0.56 0.58 0.60 0.58 0.55 0.50 0.44 0.47 0.52
0.59 0.58 0.57 0.45 0.35 0.33 0.33 0.34 0.35 0.37 0.44 0.51 0.48 0.43 0.42 0.42 0.48 0.62 0.76 0.83 0.86 0.75 0.62 0.54 0.49 0.43 0.39 0.39 0.40 0.40 0.44 0.55 0.65 0.73 0.69 0.64 0.61 0.66
0.65 0.63 0.60 0.51 0.42 0.38 0.41 0.40 0.37 0.38 0.44 0.49 0.48 0.40 0.36 0.38 0.46 0.58 0.70 0.77 0.79 0.80 0.70 0.57 0.50 0.46 0.40 0.39 0.36 0.34 0.36 0.43 0.52 0.66 0.80 0.83 0.80 0.78
0.67 0.65 0.60 0.57 0.51 0.47 0.49 0.45 0.40 0.45 0.48 0.47 0.48 0.49 0.47 0.47 0.49 0.53 0.59 0.65 0.70 0.71 0.64 0.57 0.51 0.46 0.43 0.38 0.38 0.38 0.36 0.39 0.40 0.46 0.65 0.86 1.02 1.09
0.84 0.85 0.78 0.70 0.61 0.56 0.55 0.55 0.53 0.57 0.54 0.54 0.57 0.61 0.58 0.51 0.48 0.49 0.56 0.57 0.56 0.56 0.57 0.54 0.49 0.47 0.43 0.33 0.34 0.36 0.37 0.36 0.32 0.30 0.37 0.55 0.80 1.00
0.90 0.91 0.87 0.79 0.69 0.65 0.64 0.63 0.60 0.59 0.55 0.56 0.58 0.62 0.63 0.56 0.48 0.47 0.52 0.55 0.53 0.50 0.48 0.48 0.47 0.47 0.47 0.42 0.29 0.25 0.27 0.26 0.25 0.27 0.31 0.36 0.47 0.57
0.88 0.88 0.83 0.78 0.71 0.68 0.67 0.66 0.61 0.60 0.59 0.59 0.59 0.60 0.63 0.61 0.55 0.49 0.47 0.51 0.53 0.54 0.49 0.44 0.41 0.37 0.35 0.32 0.30 0.22 0.18 0.17 0.17 0.23 0.31 0.30 0.31 0.33
0.82 0.83 0.79 0.75 0.71 0.68 0.64 0.65 0.65 0.64 0.61 0.59 0.60 0.59 0.60 0.57 0.57 0.51 0.45 0.44 0.48 0.53 0.52 0.44 0.35 0.28 0.24 0.23 0.22 0.24 0.22 0.19 0.17 0.17 0.22 0.24 0.23 0.19
0.82 0.79 0.74 0.68 0.66 0.65 0.63 0.61 0.60 0.59 0.58 0.61 0.60 0.57 0.58 0.53 0.50 0.50 0.48 0.45 0.45 0.48 0.47 0.39 0.32 0.30 0.30 0.32 0.30 0.26 0.24 0.23 0.23 0.21 0.20 0.22 0.23 0.23
0.79 0.73 0.70 0.63 0.60 0.60 0.60 0.58 0.58 0.57 0.57 0.60 0.60 0.58 0.56 0.49 0.43 0.44 0.47 0.45 0.40 0.40 0.43 0.41 0.39 0.37 0.37 0.36 0.33 0.28 0.27 0.27 0.27 0.26 0.24 0.19 0.18 0.19
0.69 0.65 0.63 0.57 0.53 0.50 0.48 0.49 0.50 0.51 0.52 0.53 0.53 0.55 0.56 0.50 0.43 0.41 0.43 0.45 0.43 0.41 0.46 0.49 0.45 0.40 0.35 0.33 0.33 0.34 0.34 0.33 0.32 0.32 0.30 0.20 0.11 0.08

GEFSNE_prec_meanprecacc_090.txt.gz
Total_Precipitation_Accumulation
0.79 0.89 0.99 1.03 1.10 1.18 1.27 1.32 1.36 1.32 1.30 1.24 1.03 0.97 0.92 0.89 0.91 0.82 0.87 0.67 0.42 0.34 0.34 0.34 0.33 0.35 0.43 0.58 0.75 0.90 1.10 1.24 1.30 1.35 1.36 1.42 1.47 1.55
0.88 0.99 1.03 1.03 1.05 1.14 1.27 1.43 1.53 1.50 1.36 1.14 1.03 1.06 1.08 0.96 0.89 0.74 0.69 0.66 0.47 0.35 0.32 0.32 0.32 0.32 0.35 0.47 0.60 0.73 0.87 1.00 1.12 1.22 1.27 1.31 1.34 1.42
0.79 0.91 0.99 1.02 1.06 1.10 1.20 1.28 1.43 1.55 1.42 1.22 1.16 1.22 1.27 1.24 1.06 0.86 0.69 0.62 0.52 0.41 0.32 0.30 0.30 0.34 0.40 0.45 0.53 0.61 0.68 0.77 0.90 1.03 1.14 1.23 1.28 1.33
0.81 0.84 0.83 0.88 0.99 1.01 1.07 1.11 1.22 1.42 1.38 1.29 1.33 1.36 1.38 1.32 1.23 1.03 0.83 0.71 0.65 0.49 0.36 0.31 0.29 0.31 0.34 0.34 0.41 0.53 0.63 0.68 0.72 0.77 0.85 0.96 1.09 1.19
0.73 0.73 0.70 0.72 0.78 0.86 0.96 0.95 0.97 1.10 1.24 1.31 1.42 1.49 1.56 1.45 1.26 1.11 0.97 0.87 0.69 0.58 0.47 0.37 0.33 0.31 0.31 0.30 0.33 0.41 0.53 0.65 0.71 0.75 0.79 0.85 0.92 1.01
0.62 0.59 0.61 0.64 0.66 0.70 0.80 0.85 0.87 0.96 1.09 1.20 1.37 1.58 1.59 1.64 1.50 1.27 1.16 1.09 0.85 0.62 0.56 0.49 0.42 0.37 0.33 0.29 0.28 0.32 0.42 0.57 0.72 0.78 0.83 0.93 1.01 1.03
0.56 0.52 0.50 0.49 0.51 0.57 0.60 0.66 0.74 0.84 0.89 0.98 1.14 1.38 1.52 1.61 1.57 1.37 1.23 1.23 1.10 0.81 0.67 0.62 0.57 0.49 0.44 0.38 0.30 0.27 0.32 0.45 0.66 0.81 0.88 0.97 1.10 1.17
0.48 0.48 0.44 0.39 0.41 0.43 0.40 0.46 0.54 0.60 0.71 0.85 0.93 1.13 1.33 1.41 1.52 1.60 1.47 1.31 1.25 1.10 0.98 0.92 0.79 0.71 0.57 0.44 0.35 0.26 0.25 0.32 0.43 0.59 0.74 0.87 0.99 1.13
0.42 0.44 0.35 0.30 0.36 0.39 0.36 0.32 0.35 0.38 0.46 0.64 0.77 0.88 1.10 1.29 1.45 1.62 1.60 1.52 1.43 1.35 1.24 1.22 1.03 0.87 0.72 0.59 0.48 0.33 0.26 0.23 0.27 0.34 0.44 0.59 0.72 0.84
0.36 0.42 0.42 0.38 0.37 0.40 0.39 0.35 0.31 0.31 0.33 0.39 0.50 0.67 0.92 1.28 1.46 1.52 1.65 1.69 1.66 1.58 1.46 1.43 1.29 1.11 0.97 0.83 0.70 0.49 0.35 0.27 0.24 0.25 0.28 0.33 0.45 0.58
0.35 0.39 0.43 0.42 0.41 0.31 0.33 0.36 0.36 0.35 0.30 0.34 0.40 0.52 0.71 0.98 1.36 1.49 1.52 1.46 1.43 1.27 1.09 1.08 1.14 1.15 1.13 1.04 0.90 0.74 0.55 0.40 0.33 0.32 0.33 0.33 0.38 0.47
0.49 0.49 0.43 0.40 0.37 0.30 0.33 0.39 0.37 0.35 0.36 0.36 0.37 0.41 0.47 0.64 0.93 1.17 1.21 1.15 1.06 1.06 0.85 0.73 0.74 0.77 0.91 0.91 0.81 0.74 0.66 0.61 0.53 0.42 0.36 0.35 0.44 0.46
0.54 0.56 0.52 0.42 0.31 0.29 0.32 0.39 0.39 0.39 0.49 0.51 0.51 0.50 0.53 0.57 0.65 0.83 1.01 1.04 0.94 0.82 0.75 0.67 0.62 0.58 0.57 0.63 0.66 0.63 0.62 0.64 0.61 0.58 0.52 0.47 0.49 0.54
0.61 0.63 0.64 0.47 0.35 0.34 0.33 0.34 0.36 0.37 0.47 0.55 0.54 0.51 0.51 0.51 0.55 0.67 0.82 0.91 0.98 0.89 0.79 0.73 0.68 0.59 0.50 0.47 0.49 0.49 0.50 0.58 0.67 0.75 0.70 0.65 0.62 0.68
0.65 0.65 0.62 0.52 0.42 0.38 0.41 0.41 0.37 0.39 0.46 0.52 0.53 0.46 0.43 0.48 0.58 0.71 0.83 0.90 0.94 0.94 0.85 0.75 0.70 0.65 0.55 0.48 0.43 0.41 0.43 0.49 0.55 0.69 0.81 0.84 0.80 0.79
0.70 0.69 0.61 0.58 0.51 0.49 0.51 0.46 0.41 0.47 0.51 0.52 0.55 0.56 0.55 0.57 0.61 0.67 0.75 0.80 0.86 0.88 0.81 0.75 0.73 0.68 0.61 0.51 0.48 0.46 0.43 0.45 0.44 0.49 0.67 0.88 1.03 1.09
0.88 0.89 0.84 0.77 0.67 0.62 0.62 0.62 0.60 0.63 0.59 0.59 0.64 0.70 0.69 0.62 0.59 0.63 0.72 0.73 0.71 0.71 0.73 0.73 0.72 0.73 0.68 0.52 0.46 0.46 0.46 0.43 0.36 0.33 0.39 0.58 0.81 1.01
0.91 0.92 0.91 0.85 0.78 0.75 0.76 0.75 0.71 0.70 0.66 0.65 0.67 0.72 0.75 0.68 0.61 0.61 0.67 0.69 0.66 0.65 0.64 0.64 0.67 0.72 0.73 0.66 0.44 0.35 0.34 0.34 0.31 0.30 0.34 0.38 0.49 0.58
0.88 0.89 0.86 0.85 0.79 0.78 0.79 0.78 0.74 0.72 0.72 0.71 0.71 0.72 0.76 0.74 0.70 0.64 0.62 0.64 0.66 0.68 0.65 0.59 0.57 0.55 0.52 0.49 0.46 0.32 0.26 0.23 0.24 0.28 0.34 0.32 0.33 0.34
0.84 0.86 0.84 0.83 0.81 0.79 0.76 0.77 0.78 0.78 0.74 0.70 0.72 0.72 0.74 0.71 0.72 0.66 0.60 0.57 0.60 0.67 0.68 0.59 0.49 0.41 0.38 0.35 0.32 0.33 0.30 0.26 0.22 0.22 0.25 0.26 0.25 0.20
0.88 0.85 0.81 0.76 0.75 0.76 0.74 0.72 0.72 0.71 0.71 0.73 0.71 0.69 0.72 0.67 0.63 0.62 0.61 0.59 0.59 0.63 0.60 0.50 0.42 0.42 0.47 0.51 0.46 0.38 0.33 0.31 0.32 0.28 0.26 0.26 0.26 0.25
0.84 0.79 0.77 0.71 0.69 0.70 0.71 0.70 0.69 0.69 0.70 0.74 0.73 0.70 0.68 0.62 0.55 0.55 0.58 0.57 0.51 0.52 0.57 0.56 0.55 0.51 0.52 0.52 0.48 0.41 0.37 0.36 0.37 0.41 0.37 0.27 0.22 0.22
0.75 0.71 0.70 0.64 0.61 0.59 0.59 0.59 0.61 0.63 0.64 0.67 0.68 0.68 0.68 0.62 0.54 0.52 0.55 0.57 0.54 0.53 0.62 0.67 0.62 0.53 0.47 0.47 0.48 0.48 0.45 0.43 0.42 0.44 0.45 0.33 0.18 0.12

GEFSNE_prec_meanprecacc_096.txt.gz
Total_Precipitation_Accumulation
0.79 0.89 0.99 1.03 1.10 1.18 1.28 1.33 1.37 1.33 1.30 1.24 1.04 0.98 0.94 0.92 0.97 0.89 0.93 0.74 0.49 0.40 0.38 0.39 0.39 0.42 0.51 0.67 0.82 0.95 1.16 1.29 1.36 1.41 1.42 1.46 1.51 1.58
0.88 0.99 1.03 1.03 1.05 1.14 1.27 1.44 1.53 1.51 1.37 1.14 1.03 1.07 1.09 0.99 0.93 0.80 0.75 0.72 0.53 0.41 0.37 0.37 0.36 0.37 0.41 0.54 0.67 0.78 0.92 1.03 1.15 1.25 1.30 1.33 1.36 1.45
0.79 0.91 0.99 1.02 1.06 1.11 1.20 1.29 1.44 1.56 1.43 1.22 1.16 1.22 1.28 1.25 1.08 0.90 0.75 0.68 0.58 0.46 0.37 0.35 0.34 0.38 0.44 0.50 0.60 0.69 0.75 0.81 0.93 1.06 1.17 1.25 1.30 1.34
0.81 0.84 0.83 0.88 0.99 1.01 1.07 1.12 1.23 1.42 1.38 1.29 1.33 1.36 1.39 1.33 1.24 1.06 0.87 0.76 0.71 0.54 0.41 0.35 0.34 0.35 0.37 0.38 0.45 0.59 0.69 0.74 0.76 0.80 0.87 0.99 1.12 1.21
0.73 0.73 0.71 0.73 0.78 0.86 0.96 0.95 0.97 1.10 1.24 1.32 1.43 1.50 1.57 1.46 1.28 1.14 1.02 0.92 0.74 0.63 0.52 0.42 0.37 0.35 0.35 0.34 0.37 0.46 0.58 0.70 0.76 0.79 0.82 0.89 0.95 1.04
0.62 0.59 0.61 0.64 0.66 0.70 0.80 0.85 0.87 0.96 1.10 1.20 1.38 1.58 1.60 1.64 1.52 1.30 1.20 1.14 0.90 0.66 0.61 0.54 0.47 0.41 0.37 0.33 0.32 0.37 0.47 0.63 0.79 0.84 0.88 0.97 1.05 1.06
0.56 0.52 0.50 0.49 0.51 0.57 0.60 0.66 0.74 0.84 0.89 0.98 1.14 1.39 1.53 1.62 1.58 1.40 1.26 1.27 1.15 0.86 0.71 0.65 0.61 0.53 0.47 0.41 0.33 0.31 0.37 0.51 0.72 0.88 0.94 1.02 1.14 1.21
0.48 0.48 0.44 0.39 0.42 0.43 0.41 0.46 0.54 0.60 0.71 0.85 0.93 1.13 1.33 1.42 1.53 1.62 1.50 1.34 1.29 1.15 1.03 0.96 0.84 0.77 0.62 0.47 0.39 0.31 0.30 0.38 0.50 0.66 0.80 0.94 1.04 1.18
0.42 0.44 0.35 0.30 0.37 0.40 0.37 0.32 0.35 0.38 0.46 0.64 0.77 0.88 1.10 1.29 1.45 1.63 1.62 1.55 1.47 1.41 1.31 1.29 1.10 0.93 0.78 0.65 0.55 0.41 0.33 0.30 0.34 0.41 0.51 0.66 0.77 0.89
0.36 0.42 0.42 0.38 0.38 0.40 0.40 0.35 0.31 0.31 0.33 0.39 0.50 0.67 0.92 1.28 1.46 1.53 1.66 1.70 1.69 1.64 1.54 1.52 1.39 1.19 1.04 0.90 0.79 0.58 0.45 0.36 0.33 0.32 0.35 0.40 0.52 0.64
0.35 0.39 0.44 0.43 0.41 0.32 0.35 0.36 0.36 0.35 0.31 0.34 0.41 0.53 0.71 0.98 1.36 1.49 1.53 1.47 1.45 1.31 1.16 1.18 1.25 1.26 1.24 1.14 0.99 0.84 0.67 0.52 0.44 0.42 0.41 0.40 0.44 0.53
0.50 0.50 0.44 0.40 0.37 0.31 0.34 0.40 0.37 0.35 0.36 0.37 0.38 0.41 0.47 0.64 0.93 1.17 1.21 1.16 1.07 1.09 0.90 0.80 0.85 0.91 1.04 1.03 0.93 0.86 0.79 0.76 0.67 0.54 0.46 0.44 0.52 0.52
0.54 0.57 0.52 0.42 0.31 0.29 0.32 0.39 0.39 0.39 0.49 0.51 0.51 0.51 0.53 0.57 0.66 0.83 1.01 1.04 0.95 0.83 0.78 0.73 0.72 0.72 0.72 0.76 0.79 0.76 0.75 0.77 0.75 0.72 0.65 0.59 0.59 0.60
0.61 0.63 0.64 0.47 0.35 0.34 0.33 0.34 0.36 0.37 0.47 0.55 0.54 0.51 0.51 0.52 0.55 0.67 0.83 0.92 0.99 0.90 0.81 0.78 0.75 0.69 0.63 0.59 0.61 0.61 0.62 0.71 0.81 0.89 0.84 0.79 0.75 0.78
0.66 0.65 0.62 0.52 0.42 0.38 0.41 0.41 0.37 0.39 0.46 0.53 0.53 0.46 0.43 0.48 0.59 0.72 0.84 0.92 0.96 0.96 0.87 0.79 0.75 0.73 0.64 0.58 0.52 0.50 0.53 0.61 0.68 0.81 0.94 0.96 0.90 0.87
0.70 0.69 0.62 0.59 0.52 0.49 0.51 0.46 0.41 0.47 0.51 0.52 0.55 0.57 0.56 0.59 0.63 0.69 0.77 0.83 0.88 0.89 0.83 0.78 0.78 0.76 0.70 0.60 0.57 0.54 0.50 0.53 0.54 0.60 0.79 0.99 1.11 1.16
0.89 0.90 0.84 0.77 0.68 0.62 0.63 0.63 0.61 0.63 0.59 0.60 0.65 0.71 0.69 0.63 0.61 0.64 0.74 0.77 0.73 0.73 0.76 0.77 0.78 0.81 0.77 0.62 0.55 0.56 0.54 0.50 0.44 0.41 0.49 0.68 0.89 1.07
0.92 0.92 0.91 0.85 0.78 0.76 0.77 0.76 0.73 0.71 0.66 0.66 0.68 0.73 0.76 0.70 0.63 0.63 0.69 0.73 0.69 0.68 0.68 0.69 0.74 0.82 0.86 0.80 0.55 0.44 0.44 0.42 0.39 0.40 0.43 0.45 0.56 0.63
0.89 0.90 0.87 0.86 0.80 0.79 0.80 0.79 0.75 0.74 0.73 0.73 0.72 0.73 0.78 0.78 0.73 0.68 0.65 0.68 0.70 0.72 0.70 0.67 0.65 0.63 0.61 0.61 0.57 0.40 0.34 0.33 0.35 0.40 0.46 0.41 0.38 0.39
0.85 0.87 0.86 0.84 0.82 0.79 0.77 0.78 0.79 0.80 0.76 0.72 0.73 0.74 0.77 0.76 0.77 0.71 0.65 0.62 0.66 0.73 0.75 0.68 0.57 0.48 0.43 0.40 0.41 0.41 0.38 0.36 0.34 0.36 0.39 0.39 0.35 0.30
0.89 0.87 0.83 0.78 0.77 0.77 0.75 0.73 0.73 0.73 0.73 0.75 0.73 0.71 0.74 0.71 0.68 0.67 0.66 0.65 0.66 0.71 0.67 0.56 0.48 0.52 0.57 0.60 0.54 0.48 0.43 0.41 0.46 0.42 0.39 0.40 0.40 0.38
0.86 0.80 0.79 0.73 0.71 0.71 0.72 0.71 0.70 0.70 0.72 0.76 0.76 0.73 0.71 0.65 0.59 0.58 0.62 0.61 0.57 0.59 0.65 0.64 0.66 0.64 0.64 0.60 0.55 0.50 0.48 0.49 0.54 0.62 0.56 0.42 0.34 0.32
0.77 0.72 0.71 0.66 0.62 0.61 0.60 0.61 0.62 0.65 0.66 0.69 0.70 0.71 0.71 0.65 0.58 0.56 0.58 0.60 0.60 0.61 0.71 0.77 0.73 0.65 0.57 0.56 0.57 0.57 0.55 0.56 0.57 0.62 0.62 0.48 0.31 0.23

GEFSNE_prec_meanprecacc_102.txt.gz
Total_Precipitation_Accumulation
0.79 0.89 0.99 1.03 1.10 1.18 1.28 1.33 1.37 1.33 1.30 1.24 1.04 0.98 0.94 0.92 0.97 0.90 0.93 0.75 0.51 0.42 0.41 0.42 0.43 0.46 0.57 0.73 0.89 1.03 1.23 1.37 1.45 1.52 1.53 1.57 1.60 1.66
0.88 0.99 1.03 1.03 1.05 1.14 1.27 1.44 1.53 1.51 1.37 1.14 1.03 1.07 1.09 0.99 0.93 0.80 0.75 0.72 0.55 0.42 0.38 0.39 0.39 0.41 0.45 0.58 0.72 0.83 0.97 1.08 1.19 1.30 1.36 1.39 1.42 1.51
0.79 0.91 0.99 1.02 1.06 1.11 1.20 1.29 1.44 1.56 1.43 1.22 1.16 1.22 1.28 1.25 1.08 0.90 0.75 0.69 0.58 0.47 0.38 0.36 0.36 0.41 0.48 0.54 0.65 0.74 0.79 0.85 0.96 1.09 1.20 1.29 1.33 1.37
0.81 0.84 0.83 0.88 0.99 1.01 1.07 1.12 1.23 1.42 1.39 1.29 1.33 1.36 1.39 1.33 1.25 1.07 0.88 0.77 0.71 0.55 0.42 0.36 0.36 0.37 0.41 0.42 0.49 0.63 0.74 0.79 0.81 0.83 0.89 1.01 1.14 1.23
0.73 0.73 0.71 0.73 0.78 0.86 0.96 0.95 0.98 1.10 1.24 1.32 1.43 1.50 1.57 1.46 1.28 1.14 1.02 0.93 0.74 0.64 0.53 0.43 0.39 0.38 0.38 0.38 0.42 0.50 0.62 0.75 0.82 0.86 0.87 0.92 0.98 1.06
0.62 0.59 0.61 0.64 0.66 0.70 0.80 0.85 0.87 0.96 1.10 1.20 1.38 1.58 1.60 1.64 1.52 1.30 1.20 1.14 0.90 0.67 0.62 0.55 0.49 0.43 0.39 0.36 0.37 0.43 0.53 0.68 0.83 0.90 0.95 1.03 1.10 1.10
0.56 0.52 0.50 0.49 0.51 0.57 0.60 0.66 0.74 0.84 0.89 0.98 1.14 1.39 1.53 1.62 1.58 1.40 1.26 1.27 1.15 0.86 0.72 0.67 0.63 0.56 0.50 0.44 0.36 0.35 0.43 0.57 0.77 0.91 0.98 1.09 1.21 1.27
0.48 0.48 0.44 0.39 0.42 0.43 0.41 0.46 0.54 0.60 0.71 0.85 0.93 1.13 1.33 1.42 1.53 1.62 1.50 1.34 1.30 1.16 1.04 0.98 0.85 0.79 0.65 0.51 0.42 0.33 0.33 0.43 0.55 0.70 0.83 0.97 1.09 1.25
0.42 0.44 0.35 0.30 0.37 0.40 0.37 0.32 0.35 0.38 0.46 0.64 0.77 0.88 1.10 1.29 1.45 1.63 1.62 1.55 1.48 1.42 1.32 1.30 1.11 0.94 0.80 0.67 0.58 0.45 0.36 0.33 0.37 0.45 0.55 0.69 0.81 0.93
0.36 0.42 0.42 0.38 0.38 0.40 0.40 0.35 0.31 0.31 0.33 0.40 0.50 0.67 0.92 1.28 1.46 1.53 1.66 1.70 1.69 1.64 1.54 1.53 1.40 1.20 1.05 0.91 0.81 0.61 0.49 0.40 0.37 0.36 0.40 0.45 0.57 0.69
0.35 0.39 0.44 0.43 0.41 0.32 0.35 0.36 0.36 0.35 0.31 0.34 0.41 0.53 0.71 0.98 1.36 1.49 1.53 1.47 1.45 1.31 1.16 1.19 1.27 1.27 1.25 1.15 1.01 0.86 0.70 0.56 0.49 0.47 0.46 0.46 0.51 0.61
0.50 0.50 0.44 0.40 0.38 0.31 0.34 0.40 0.37 0.35 0.36 0.37 0.38 0.41 0.47 0.64 0.93 1.17 1.21 1.16 1.07 1.09 0.90 0.81 0.86 0.93 1.07 1.05 0.95 0.87 0.81 0.80 0.72 0.60 0.53 0.51 0.60 0.59
0.55 0.57 0.52 0.42 0.32 0.29 0.32 0.39 0.39 0.39 0.49 0.51 0.51 0.51 0.53 0.57 0.66 0.84 1.01 1.05 0.95 0.83 0.79 0.74 0.74 0.75 0.75 0.79 0.80 0.77 0.78 0.82 0.81 0.78 0.72 0.70 0.72 0.70
0.61 0.63 0.64 0.48 0.36 0.34 0.34 0.34 0.36 0.37 0.47 0.56 0.54 0.51 0.51 0.52 0.55 0.68 0.83 0.92 0.99 0.90 0.82 0.79 0.77 0.71 0.67 0.62 0.64 0.63 0.65 0.75 0.87 0.97 0.92 0.90 0.89 0.96
0.66 0.66 0.62 0.52 0.42 0.39 0.41 0.41 0.37 0.39 0.46 0.53 0.53 0.46 0.43 0.49 0.59 0.72 0.84 0.92 0.96 0.96 0.88 0.79 0.76 0.75 0.66 0.61 0.56 0.55 0.58 0.65 0.73 0.89 1.05 1.08 1.03 1.02
0.70 0.69 0.62 0.59 0.52 0.49 0.51 0.46 0.42 0.47 0.52 0.52 0.55 0.57 0.56 0.59 0.63 0.69 0.77 0.83 0.88 0.89 0.84 0.79 0.79 0.77 0.72 0.62 0.60 0.58 0.55 0.59 0.59 0.66 0.88 1.12 1.28 1.34
0.89 0.90 0.84 0.78 0.68 0.62 0.63 0.63 0.61 0.64 0.60 0.60 0.65 0.71 0.70 0.63 0.61 0.64 0.74 0.77 0.73 0.73 0.76 0.78 0.79 0.82 0.79 0.64 0.58 0.59 0.58 0.55 0.49 0.47 0.56 0.79 1.06 1.26
0.92 0.93 0.91 0.86 0.79 0.77 0.78 0.77 0.73 0.72 0.67 0.67 0.69 0.74 0.76 0.70 0.64 0.64 0.70 0.73 0.70 0.69 0.68 0.70 0.75 0.83 0.88 0.83 0.58 0.47 0.48 0.47 0.45 0.46 0.50 0.54 0.69 0.80
0.90 0.90 0.88 0.86 0.81 0.79 0.81 0.80 0.76 0.74 0.74 0.74 0.73 0.74 0.79 0.79 0.74 0.68 0.65 0.69 0.71 0.73 0.71 0.68 0.66 0.65 0.63 0.62 0.58 0.42 0.38 0.37 0.40 0.47 0.52 0.47 0.48 0.54
0.86 0.88 0.87 0.85 0.83 0.80 0.77 0.79 0.80 0.81 0.77 0.73 0.74 0.75 0.78 0.77 0.79 0.73 0.66 0.63 0.67 0.73 0.76 0.69 0.58 0.49 0.44 0.42 0.42 0.43 0.40 0.41 0.40 0.42 0.46 0.45 0.44 0.46
0.90 0.88 0.84 0.79 0.78 0.78 0.76 0.74 0.74 0.73 0.73 0.75 0.74 0.72 0.75 0.72 0.69 0.68 0.68 0.67 0.68 0.73 0.68 0.57 0.50 0.54 0.60 0.63 0.57 0.50 0.45 0.45 0.53 0.51 0.49 0.50 0.50 0.51
0.88 0.82 0.80 0.74 0.72 0.73 0.73 0.72 0.71 0.71 0.72 0.77 0.76 0.73 0.72 0.66 0.61 0.61 0.64 0.63 0.59 0.62 0.68 0.68 0.70 0.67 0.68 0.64 0.57 0.51 0.51 0.53 0.61 0.74 0.72 0.57 0.44 0.41
0.80 0.75 0.74 0.68 0.65 0.63 0.62 0.63 0.63 0.66 0.66 0.69 0.71 0.72 0.72 0.66 0.59 0.58 0.61 0.63 0.63 0.65 0.76 0.82 0.78 0.69 0.61 0.60 0.61 0.60 0.59 0.61 0.63 0.71 0.74 0.63 0.44 0.33

GEFSNE_prec_meanprecacc_108.txt.gz
Total_Precipitation_Accumulation
0.79 0.90 0.99 1.03 1.10 1.19 1.28 1.33 1.37 1.33 1.31 1.24 1.04 0.98 0.94 0.92 0.97 0.90 0.94 0.76 0.51 0.42 0.41 0.42 0.44 0.48 0.59 0.77 0.94 1.09 1.29 1.43 1.52 1.60 1.63 1.68 1.72 1.77
0.88 0.99 1.03 1.04 1.06 1.15 1.27 1.44 1.54 1.52 1.37 1.14 1.03 1.07 1.09 0.99 0.93 0.80 0.75 0.72 0.55 0.43 0.39 0.39 0.39 0.41 0.46 0.60 0.75 0.87 1.02 1.14 1.26 1.36 1.43 1.46 1.49 1.58
0.79 0.91 0.99 1.02 1.06 1.11 1.20 1.29 1.44 1.57 1.44 1.22 1.17 1.22 1.28 1.25 1.08 0.90 0.75 0.69 0.59 0.47 0.38 0.37 0.37 0.42 0.48 0.55 0.66 0.77 0.84 0.90 1.03 1.16 1.26 1.34 1.38 1.42
0.82 0.84 0.83 0.89 1.00 1.02 1.08 1.12 1.23 1.43 1.39 1.30 1.33 1.37 1.39 1.33 1.25 1.07 0.88 0.77 0.71 0.55 0.42 0.37 0.36 0.38 0.42 0.42 0.50 0.65 0.77 0.83 0.86 0.89 0.95 1.06 1.19 1.29
0.73 0.73 0.71 0.73 0.78 0.87 0.97 0.96 0.98 1.10 1.25 1.32 1.43 1.50 1.57 1.46 1.28 1.14 1.02 0.93 0.74 0.64 0.53 0.43 0.40 0.38 0.39 0.39 0.43 0.51 0.64 0.77 0.85 0.89 0.91 0.96 1.02 1.10
0.62 0.59 0.61 0.64 0.66 0.71 0.80 0.85 0.88 0.97 1.11 1.20 1.38 1.58 1.60 1.65 1.52 1.30 1.20 1.14 0.91 0.67 0.62 0.55 0.49 0.44 0.40 0.36 0.37 0.44 0.53 0.69 0.85 0.93 0.99 1.07 1.13 1.13
0.57 0.52 0.50 0.49 0.52 0.58 0.60 0.67 0.75 0.85 0.89 0.99 1.14 1.39 1.53 1.63 1.59 1.40 1.26 1.28 1.16 0.86 0.72 0.67 0.63 0.56 0.51 0.44 0.36 0.36 0.44 0.58 0.78 0.93 1.02 1.12 1.24 1.30
0.48 0.48 0.44 0.39 0.42 0.43 0.41 0.46 0.54 0.61 0.72 0.86 0.94 1.14 1.34 1.43 1.54 1.63 1.51 1.35 1.30 1.17 1.05 0.98 0.86 0.79 0.67 0.52 0.43 0.34 0.34 0.44 0.56 0.71 0.86 1.00 1.12 1.28
0.42 0.44 0.35 0.30 0.37 0.40 0.37 0.32 0.35 0.38 0.46 0.65 0.78 0.88 1.11 1.32 1.48 1.65 1.65 1.58 1.49 1.43 1.33 1.31 1.11 0.94 0.80 0.68 0.59 0.45 0.37 0.33 0.38 0.47 0.57 0.71 0.84 0.96
0.36 0.42 0.43 0.38 0.38 0.40 0.41 0.36 0.32 0.31 0.34 0.40 0.50 0.68 0.94 1.30 1.50 1.57 1.69 1.74 1.71 1.65 1.56 1.54 1.40 1.20 1.05 0.92 0.81 0.61 0.49 0.41 0.38 0.38 0.41 0.47 0.59 0.71
0.35 0.40 0.44 0.43 0.42 0.33 0.36 0.37 0.36 0.36 0.31 0.34 0.41 0.53 0.71 0.99 1.38 1.51 1.55 1.49 1.47 1.33 1.19 1.22 1.28 1.28 1.26 1.16 1.01 0.87 0.71 0.57 0.50 0.49 0.48 0.48 0.54 0.64
0.51 0.51 0.44 0.40 0.38 0.31 0.35 0.41 0.38 0.36 0.38 0.39 0.39 0.41 0.47 0.64 0.93 1.17 1.22 1.19 1.10 1.11 0.92 0.85 0.88 0.95 1.08 1.06 0.96 0.89 0.83 0.81 0.74 0.63 0.57 0.55 0.63 0.62
0.55 0.57 0.53 0.43 0.32 0.29 0.32 0.40 0.40 0.41 0.51 0.54 0.53 0.53 0.55 0.59 0.67 0.85 1.02 1.07 0.99 0.86 0.82 0.79 0.77 0.78 0.78 0.81 0.83 0.79 0.80 0.84 0.83 0.80 0.75 0.73 0.77 0.74
0.61 0.63 0.64 0.48 0.36 0.34 0.34 0.35 0.36 0.38 0.48 0.57 0.55 0.52 0.53 0.53 0.56 0.69 0.85 0.95 1.02 0.93 0.85 0.84 0.82 0.76 0.71 0.66 0.67 0.66 0.68 0.78 0.89 0.99 0.95 0.94 0.94 1.01
0.66 0.66 0.63 0.52 0.42 0.39 0.42 0.41 0.38 0.39 0.47 0.54 0.54 0.47 0.45 0.50 0.61 0.74 0.87 0.95 0.99 0.98 0.89 0.82 0.80 0.79 0.71 0.65 0.59 0.58 0.61 0.69 0.77 0.93 1.09 1.13 1.08 1.07
0.71 0.70 0.63 0.60 0.53 0.50 0.52 0.47 0.42 0.48 0.53 0.54 0.57 0.59 0.58 0.61 0.65 0.71 0.79 0.86 0.91 0.91 0.86 0.81 0.82 0.82 0.76 0.65 0.64 0.62 0.60 0.64 0.64 0.71 0.92 1.16 1.33 1.40
0.90 0.91 0.85 0.79 0.69 0.63 0.64 0.65 0.63 0.66 0.61 0.62 0.67 0.73 0.72 0.66 0.63 0.67 0.77 0.80 0.76 0.76 0.79 0.82 0.84 0.88 0.85 0.69 0.63 0.63 0.63 0.60 0.54 0.54 0.63 0.84 1.10 1.31
0.93 0.93 0.92 0.87 0.80 0.79 0.81 0.80 0.77 0.75 0.71 0.70 0.72 0.77 0.80 0.74 0.68 0.68 0.73 0.76 0.72 0.71 0.71 0.74 0.81 0.90 0.94 0.87 0.61 0.49 0.52 0.53 0.52 0.54 0.57 0.60 0.74 0.85
0.90 0.91 0.88 0.88 0.83 0.83 0.85 0.84 0.80 0.80 0.80 0.79 0.77 0.78 0.83 0.82 0.78 0.73 0.70 0.72 0.73 0.75 0.74 0.72 0.72 0.72 0.69 0.66 0.62 0.44 0.40 0.43 0.50 0.57 0.61 0.54 0.53 0.60
0.87 0.89 0.88 0.87 0.86 0.84 0.81 0.83 0.84 0.85 0.82 0.77 0.78 0.79 0.82 0.81 0.83 0.77 0.69 0.66 0.70 0.76 0.79 0.73 0.63 0.54 0.49 0.47 0.49 0.51 0.44 0.47 0.50 0.53 0.57 0.55 0.53 0.53
0.91 0.90 0.86 0.82 0.81 0.81 0.80 0.78 0.77 0.77 0.78 0.81 0.79 0.77 0.81 0.78 0.75 0.73 0.72 0.71 0.72 0.76 0.72 0.60 0.55 0.58 0.67 0.74 0.66 0.56 0.52 0.50 0.59 0.62 0.63 0.65 0.63 0.61
0.90 0.85 0.84 0.78 0.77 0.78 0.78 0.76 0.75 0.75 0.77 0.83 0.82 0.79 0.77 0.72 0.66 0.66 0.70 0.69 0.65 0.67 0.72 0.73 0.78 0.77 0.76 0.71 0.63 0.58 0.60 0.63 0.67 0.78 0.79 0.68 0.57 0.53
0.85 0.81 0.80 0.75 0.71 0.68 0.68 0.68 0.69 0.71 0.72 0.76 0.79 0.79 0.78 0.72 0.65 0.64 0.68 0.70 0.70 0.72 0.85 0.91 0.88 0.79 0.70 0.69 0.70 0.68 0.68 0.73 0.76 0.79 0.81 0.70 0.51 0.41

GEFSNE_prec_meanprecacc_114.txt.gz
Total_Precipitation_Accumulation
0.79 0.90 0.99 1.04 1.10 1.19 1.28 1.33 1.37 1.34 1.31 1.25 1.04 0.98 0.95 0.92 0.97 0.90 0.95 0.76 0.51 0.42 0.41 0.43 0.44 0.48 0.60 0.78 0.95 1.11 1.32 1.47 1.58 1.66 1.71 1.79 1.85 1.92
0.89 0.99 1.04 1.04 1.06 1.15 1.27 1.44 1.54 1.52 1.38 1.15 1.03 1.07 1.09 0.99 0.93 0.80 0.75 0.73 0.55 0.43 0.39 0.39 0.39 0.41 0.46 0.60 0.75 0.88 1.03 1.15 1.28 1.39 1.46 1.51 1.55 1.66
0.79 0.91 1.00 1.02 1.06 1.11 1.20 1.29 1.44 1.57 1.44 1.22 1.17 1.22 1.28 1.25 1.09 0.90 0.75 0.69 0.59 0.47 0.38 0.37 0.37 0.42 0.48 0.55 0.66 0.77 0.85 0.92 1.04 1.17 1.28 1.37 1.42 1.47
0.82 0.84 0.84 0.89 1.00 1.02 1.08 1.12 1.23 1.43 1.39 1.30 1.33 1.37 1.39 1.33 1.25 1.07 0.88 0.77 0.71 0.55 0.42 0.37 0.36 0.38 0.42 0.42 0.50 0.65 0.77 0.84 0.87 0.90 0.97 1.08 1.22 1.32
0.74 0.73 0.71 0.73 0.79 0.87 0.97 0.96 0.98 1.11 1.25 1.33 1.43 1.50 1.57 1.46 1.28 1.15 1.02 0.93 0.74 0.64 0.53 0.43 0.40 0.38 0.39 0.39 0.43 0.51 0.64 0.77 0.85 0.90 0.92 0.98 1.04 1.12
0.63 0.60 0.61 0.65 0.67 0.72 0.81 0.86 0.88 0.97 1.11 1.21 1.38 1.58 1.61 1.65 1.52 1.31 1.21 1.15 0.91 0.67 0.62 0.55 0.49 0.44 0.40 0.36 0.37 0.44 0.54 0.69 0.85 0.93 0.99 1.08 1.14 1.14
0.57 0.52 0.50 0.49 0.52 0.59 0.61 0.67 0.76 0.86 0.90 0.99 1.14 1.39 1.53 1.64 1.60 1.41 1.27 1.29 1.16 0.87 0.72 0.67 0.63 0.57 0.51 0.45 0.36 0.36 0.44 0.58 0.78 0.93 1.02 1.12 1.24 1.30
0.49 0.48 0.44 0.40 0.42 0.43 0.41 0.47 0.55 0.61 0.72 0.86 0.94 1.14 1.35 1.44 1.56 1.64 1.52 1.37 1.32 1.17 1.06 0.98 0.86 0.80 0.67 0.53 0.43 0.34 0.34 0.44 0.56 0.72 0.86 1.00 1.13 1.29
0.43 0.45 0.36 0.30 0.37 0.41 0.38 0.33 0.35 0.38 0.46 0.65 0.78 0.89 1.12 1.33 1.51 1.67 1.67 1.60 1.51 1.44 1.35 1.32 1.11 0.94 0.80 0.68 0.59 0.45 0.37 0.33 0.38 0.47 0.57 0.72 0.84 0.96
0.37 0.42 0.43 0.39 0.38 0.42 0.43 0.38 0.33 0.33 0.35 0.41 0.51 0.68 0.94 1.32 1.53 1.59 1.72 1.76 1.73 1.66 1.58 1.55 1.40 1.20 1.05 0.92 0.81 0.61 0.49 0.41 0.38 0.38 0.41 0.48 0.59 0.72
0.35 0.41 0.46 0.46 0.44 0.35 0.38 0.39 0.38 0.38 0.32 0.35 0.41 0.53 0.72 0.99 1.38 1.52 1.56 1.51 1.48 1.33 1.20 1.23 1.28 1.29 1.26 1.16 1.01 0.87 0.71 0.57 0.50 0.49 0.48 0.48 0.54 0.64
0.52 0.53 0.46 0.41 0.39 0.32 0.36 0.43 0.40 0.37 0.40 0.41 0.41 0.43 0.48 0.64 0.94 1.18 1.23 1.20 1.11 1.12 0.93 0.87 0.90 0.98 1.10 1.06 0.96 0.90 0.84 0.82 0.74 0.63 0.57 0.55 0.64 0.62
0.56 0.58 0.53 0.44 0.33 0.30 0.33 0.41 0.41 0.42 0.54 0.57 0.56 0.55 0.57 0.61 0.69 0.86 1.04 1.09 1.01 0.87 0.82 0.82 0.81 0.82 0.82 0.82 0.83 0.80 0.82 0.87 0.85 0.81 0.75 0.74 0.77 0.74
0.62 0.63 0.65 0.49 0.36 0.34 0.34 0.35 0.36 0.38 0.48 0.58 0.56 0.53 0.54 0.55 0.58 0.72 0.90 1.00 1.07 0.95 0.87 0.88 0.86 0.80 0.75 0.69 0.68 0.67 0.69 0.80 0.93 1.03 0.99 0.97 0.94 1.01
0.66 0.66 0.63 0.53 0.42 0.39 0.42 0.41 0.38 0.40 0.48 0.55 0.55 0.48 0.46 0.52 0.63 0.78 0.91 1.03 1.06 1.02 0.92 0.87 0.86 0.83 0.77 0.69 0.61 0.59 0.63 0.70 0.79 0.96 1.13 1.18 1.12 1.11
0.72 0.71 0.63 0.60 0.53 0.50 0.52 0.47 0.43 0.48 0.53 0.55 0.58 0.61 0.61 0.65 0.69 0.75 0.85 0.94 1.00 0.96 0.90 0.87 0.89 0.89 0.82 0.69 0.67 0.64 0.62 0.66 0.66 0.74 0.97 1.22 1.40 1.47
0.92 0.93 0.87 0.81 0.71 0.65 0.66 0.67 0.66 0.69 0.65 0.65 0.71 0.77 0.76 0.71 0.69 0.73 0.85 0.88 0.85 0.81 0.83 0.88 0.91 0.97 0.92 0.76 0.69 0.65 0.65 0.62 0.56 0.57 0.69 0.89 1.15 1.37
0.93 0.94 0.93 0.89 0.82 0.82 0.85 0.84 0.81 0.81 0.78 0.79 0.82 0.86 0.88 0.81 0.75 0.75 0.83 0.87 0.81 0.77 0.77 0.79 0.90 1.01 1.04 0.95 0.65 0.52 0.54 0.54 0.54 0.59 0.64 0.65 0.76 0.88
0.90 0.91 0.89 0.89 0.85 0.85 0.88 0.89 0.85 0.86 0.89 0.90 0.90 0.92 0.96 0.95 0.90 0.84 0.82 0.85 0.84 0.83 0.79 0.78 0.81 0.81 0.77 0.71 0.65 0.46 0.43 0.47 0.55 0.63 0.68 0.60 0.56 0.64
0.88 0.90 0.90 0.90 0.89 0.87 0.85 0.88 0.90 0.93 0.92 0.89 0.91 0.93 0.97 0.97 0.98 0.91 0.83 0.79 0.81 0.86 0.87 0.80 0.70 0.61 0.55 0.52 0.55 0.57 0.47 0.51 0.56 0.59 0.63 0.62 0.59 0.59
0.93 0.92 0.89 0.85 0.85 0.86 0.86 0.85 0.85 0.86 0.87 0.92 0.91 0.90 0.95 0.93 0.88 0.85 0.84 0.82 0.82 0.87 0.81 0.67 0.61 0.66 0.76 0.84 0.72 0.59 0.55 0.53 0.62 0.67 0.71 0.74 0.71 0.70
0.94 0.89 0.88 0.83 0.83 0.85 0.86 0.85 0.84 0.84 0.87 0.95 0.95 0.92 0.91 0.86 0.79 0.78 0.81 0.82 0.78 0.78 0.81 0.81 0.89 0.91 0.88 0.81 0.69 0.61 0.65 0.69 0.73 0.81 0.81 0.73 0.64 0.60
0.89 0.85 0.85 0.80 0.78 0.77 0.77 0.78 0.80 0.83 0.85 0.89 0.91 0.91 0.91 0.86 0.79 0.78 0.82 0.85 0.84 0.86 0.99 1.04 1.00 0.93 0.83 0.80 0.79 0.75 0.74 0.81 0.88 0.89 0.85 0.72 0.53 0.43

GEFSNE_prec_meanprecacc_120.txt.gz
Total_Precipitation_Accumulation
0.79 0.90 0.99 1.04 1.10 1.19 1.28 1.33 1.37 1.34 1.31 1.25 1.04 0.98 0.95 0.92 0.97 0.90 0.95 0.76 0.51 0.42 0.41 0.43 0.44 0.48 0.60 0.78 0.95 1.11 1.33 1.48 1.59 1.68 1.74 1.84 1.93 2.02
0.89 0.99 1.04 1.04 1.06 1.15 1.27 1.44 1.54 1.52 1.38 1.15 1.04 1.07 1.09 0.99 0.93 0.80 0.75 0.73 0.55 0.43 0.39 0.39 0.39 0.41 0.46 0.60 0.75 0.88 1.04 1.16 1.29 1.40 1.47 1.52 1.58 1.70
0.79 0.91 1.00 1.03 1.07 1.11 1.20 1.29 1.44 1.57 1.44 1.22 1.17 1.22 1.28 1.25 1.09 0.90 0.75 0.69 0.59 0.47 0.38 0.37 0.37 0.42 0.48 0.55 0.66 0.77 0.85 0.92 1.04 1.17 1.28 1.38 1.43 1.49
0.82 0.85 0.84 0.89 1.00 1.02 1.08 1.12 1.23 1.43 1.39 1.30 1.33 1.37 1.39 1.33 1.25 1.07 0.88 0.77 0.71 0.55 0.42 0.37 0.36 0.38 0.42 0.42 0.50 0.65 0.77 0.84 0.87 0.90 0.97 1.09 1.23 1.33
0.75 0.75 0.72 0.74 0.79 0.88 0.99 0.97 0.99 1.12 1.26 1.33 1.43 1.50 1.57 1.46 1.28 1.15 1.02 0.93 0.74 0.64 0.53 0.43 0.40 0.38 0.39 0.39 0.43 0.51 0.64 0.77 0.85 0.90 0.92 0.98 1.04 1.12
0.65 0.61 0.63 0.66 0.68 0.73 0.83 0.88 0.90 0.99 1.12 1.21 1.38 1.58 1.61 1.65 1.52 1.31 1.21 1.15 0.91 0.67 0.62 0.55 0.49 0.44 0.40 0.36 0.37 0.44 0.54 0.69 0.85 0.93 0.99 1.08 1.14 1.15
0.58 0.53 0.52 0.50 0.53 0.60 0.62 0.69 0.77 0.87 0.91 1.00 1.15 1.39 1.53 1.64 1.60 1.41 1.27 1.29 1.16 0.87 0.72 0.67 0.64 0.57 0.51 0.45 0.36 0.36 0.44 0.58 0.78 0.93 1.02 1.12 1.24 1.30
0.49 0.49 0.45 0.40 0.43 0.44 0.42 0.48 0.56 0.63 0.73 0.87 0.95 1.14 1.35 1.45 1.57 1.65 1.52 1.37 1.32 1.17 1.06 0.98 0.86 0.80 0.67 0.53 0.43 0.34 0.34 0.44 0.56 0.72 0.86 1.00 1.13 1.29
0.43 0.45 0.36 0.31 0.37 0.41 0.39 0.35 0.37 0.40 0.47 0.66 0.79 0.89 1.12 1.33 1.52 1.68 1.68 1.61 1.51 1.44 1.35 1.32 1.11 0.94 0.81 0.68 0.59 0.45 0.37 0.33 0.38 0.47 0.57 0.72 0.84 0.97
0.38 0.43 0.44 0.39 0.39 0.43 0.44 0.39 0.34 0.33 0.35 0.41 0.52 0.68 0.95 1.32 1.54 1.60 1.73 1.77 1.73 1.66 1.58 1.56 1.40 1.21 1.05 0.92 0.81 0.62 0.49 0.41 0.38 0.38 0.42 0.48 0.59 0.72
0.38 0.43 0.48 0.47 0.45 0.36 0.39 0.40 0.38 0.38 0.32 0.36 0.42 0.54 0.72 0.99 1.39 1.53 1.57 1.52 1.48 1.33 1.21 1.24 1.29 1.29 1.26 1.16 1.01 0.87 0.71 0.57 0.51 0.50 0.48 0.48 0.54 0.64
0.57 0.58 0.50 0.45 0.41 0.35 0.38 0.44 0.41 0.37 0.40 0.41 0.42 0.43 0.49 0.65 0.94 1.19 1.24 1.21 1.12 1.12 0.93 0.88 0.91 0.98 1.10 1.06 0.97 0.90 0.84 0.82 0.74 0.63 0.57 0.55 0.64 0.62
0.63 0.65 0.60 0.49 0.37 0.34 0.36 0.43 0.42 0.43 0.55 0.58 0.56 0.55 0.58 0.61 0.69 0.87 1.05 1.10 1.03 0.88 0.82 0.83 0.81 0.83 0.83 0.83 0.83 0.80 0.82 0.87 0.85 0.81 0.76 0.74 0.77 0.75
0.71 0.71 0.71 0.54 0.40 0.36 0.35 0.36 0.37 0.39 0.49 0.58 0.57 0.53 0.54 0.55 0.58 0.72 0.91 1.02 1.08 0.96 0.88 0.90 0.89 0.82 0.77 0.70 0.68 0.67 0.69 0.80 0.93 1.03 0.99 0.97 0.95 1.02
0.72 0.70 0.66 0.55 0.44 0.40 0.43 0.42 0.38 0.40 0.48 0.55 0.56 0.48 0.46 0.52 0.64 0.79 0.92 1.04 1.09 1.04 0.94 0.90 0.90 0.87 0.81 0.71 0.61 0.59 0.64 0.71 0.80 0.97 1.14 1.18 1.12 1.11
0.76 0.75 0.67 0.63 0.55 0.51 0.53 0.48 0.43 0.49 0.54 0.55 0.59 0.61 0.61 0.65 0.70 0.77 0.87 0.96 1.02 0.98 0.92 0.90 0.93 0.95 0.87 0.72 0.69 0.64 0.62 0.66 0.66 0.75 0.98 1.23 1.41 1.47
0.98 0.97 0.90 0.83 0.73 0.66 0.67 0.67 0.67 0.70 0.66 0.66 0.72 0.78 0.78 0.72 0.70 0.75 0.88 0.92 0.88 0.84 0.85 0.90 0.95 1.03 0.98 0.82 0.72 0.67 0.66 0.63 0.57 0.58 0.69 0.90 1.15 1.38
0.96 0.96 0.95 0.90 0.83 0.82 0.85 0.85 0.82 0.82 0.79 0.80 0.83 0.88 0.90 0.83 0.77 0.78 0.87 0.91 0.85 0.81 0.80 0.83 0.96 1.09 1.11 0.99 0.68 0.55 0.56 0.55 0.55 0.60 0.65 0.65 0.76 0.89
0.91 0.92 0.90 0.90 0.86 0.87 0.90 0.90 0.86 0.86 0.90 0.92 0.93 0.95 0.99 0.99 0.95 0.89 0.87 0.91 0.90 0.88 0.84 0.83 0.88 0.90 0.83 0.73 0.66 0.48 0.45 0.48 0.56 0.64 0.69 0.61 0.56 0.64
0.88 0.91 0.91 0.91 0.90 0.88 0.87 0.89 0.91 0.95 0.94 0.92 0.94 0.96 1.02 1.02 1.04 0.97 0.89 0.85 0.87 0.91 0.91 0.85 0.76 0.68 0.62 0.57 0.58 0.59 0.50 0.53 0.57 0.60 0.64 0.63 0.60 0.60
0.94 0.93 0.90 0.86 0.85 0.87 0.87 0.86 0.86 0.87 0.89 0.94 0.93 0.93 0.99 0.98 0.93 0.90 0.89 0.87 0.87 0.91 0.85 0.70 0.64 0.72 0.84 0.92 0.78 0.61 0.57 0.55 0.64 0.69 0.73 0.76 0.73 0.71
0.94 0.89 0.88 0.83 0.83 0.85 0.87 0.85 0.84 0.85 0.89 0.97 0.97 0.95 0.95 0.91 0.85 0.84 0.88 0.88 0.85 0.84 0.85 0.84 0.92 0.98 0.97 0.89 0.73 0.64 0.67 0.71 0.76 0.83 0.84 0.75 0.66 0.61
0.89 0.86 0.85 0.80 0.78 0.78 0.78 0.79 0.81 0.85 0.87 0.91 0.94 0.95 0.96 0.92 0.85 0.84 0.87 0.91 0.91 0.92 1.03 1.08 1.04 0.98 0.89 0.87 0.85 0.79 0.77 0.84 0.91 0.92 0.87 0.74 0.55 0.44